| time (UTC) | temp F | wind direction | speed MPH | gust MPH | rain 1hr in | rain 24hr in | rain mn in | humidity % | barometer mb |
| 20260506051322 | 68 | 222 | 0.0 | 4.0 | 0.00 | 0.00 | 0.00 | 60 | 1009.2 |
| 20260506051220 | 68 | 175 | 0.0 | 4.0 | 0.00 | 0.00 | 0.00 | 60 | 1009.2 |
| 20260506051118 | 68 | 84 | 0.0 | 4.0 | 0.00 | 0.00 | 0.00 | 60 | 1009.2 |
| 20260506051014 | 68 | 88 | 0.0 | 4.0 | 0.00 | 0.00 | 0.00 | 60 | 1009.2 |
| 20260506050907 | 68 | 73 | 0.0 | 4.0 | 0.00 | 0.00 | 0.00 | 60 | 1009.2 |
| 20260506050803 | 68 | 189 | 0.0 | 4.0 | 0.00 | 0.00 | 0.00 | 60 | 1009.2 |
| 20260506050700 | 68 | 140 | 0.0 | 4.0 | 0.00 | 0.00 | 0.00 | 60 | 1009.2 |
| 20260506050555 | 68 | 134 | 0.0 | 4.0 | 0.00 | 0.00 | 0.00 | 60 | 1009.3 |
| 20260506050448 | 68 | 135 | 0.0 | 4.0 | 0.00 | 0.00 | 0.00 | 60 | 1009.3 |
| 20260506050340 | 68 | 243 | 0.0 | 4.0 | 0.00 | 0.00 | 0.00 | 60 | 1009.3 |
| 20260506050237 | 68 | 172 | 1.0 | 4.0 | 0.00 | 0.00 | 0.00 | 60 | 1009.3 |
| 20260506045133 | 68 | 32 | 0.0 | 4.0 | 0.00 | 0.00 | 0.00 | 60 | 1009.4 |
| 20260506045026 | 68 | 104 | 0.0 | 4.0 | 0.00 | 0.00 | 0.00 | 60 | 1009.4 |
| 20260506044443 | 68 | 122 | 0.0 | 13.0 | 0.00 | 0.00 | 0.00 | 60 | 1009.4 |
| 20260506044339 | 68 | 32 | 0.0 | 13.0 | 0.00 | 0.00 | 0.00 | 59 | 1009.4 |
| 20260506044234 | 68 | 277 | 0.0 | 13.0 | 0.00 | 0.00 | 0.00 | 59 | 1009.4 |
| 20260506043905 | 68 | 95 | 0.0 | 13.0 | 0.00 | 0.00 | 0.00 | 59 | 1009.4 |
| 20260506043539 | 68 | 30 | 1.0 | 13.0 | 0.00 | 0.00 | 0.00 | 60 | 1009.4 |
| 20260506043216 | 68 | 263 | 1.0 | 13.0 | 0.00 | 0.00 | 0.00 | 59 | 1009.3 |
| 20260506043110 | 68 | 92 | 1.0 | 13.0 | 0.00 | 0.00 | 0.00 | 59 | 1009.3 |
| 20260506043008 | 68 | 205 | 1.0 | 13.0 | 0.00 | 0.00 | 0.00 | 59 | 1009.4 |
| 20260506042905 | 68 | 223 | 1.0 | 13.0 | 0.00 | 0.00 | 0.00 | 59 | 1009.3 |
| 20260506042759 | 68 | 327 | 1.0 | 13.0 | 0.00 | 0.00 | 0.00 | 59 | 1009.3 |
| 20260506042654 | 68 | 180 | 1.0 | 13.0 | 0.00 | 0.00 | 0.00 | 59 | 1009.3 |
| 20260506042547 | 68 | 138 | 0.0 | 13.0 | 0.00 | 0.00 | 0.00 | 59 | 1009.3 |
| 20260506042444 | 68 | 205 | 0.0 | 5.0 | 0.00 | 0.00 | 0.00 | 59 | 1009.3 |
| 20260506042338 | 68 | 117 | 0.0 | 5.0 | 0.00 | 0.00 | 0.00 | 59 | 1009.3 |
| 20260506042233 | 68 | 164 | 0.0 | 5.0 | 0.00 | 0.00 | 0.00 | 59 | 1009.2 |
| 20260506042130 | 68 | 132 | 0.0 | 5.0 | 0.00 | 0.00 | 0.00 | 59 | 1009.2 |
| 20260506041800 | 68 | 30 | 0.0 | 5.0 | 0.00 | 0.00 | 0.00 | 59 | 1009.2 |
| 20260506041434 | 67 | 123 | 0.0 | 5.0 | 0.00 | 0.00 | 0.00 | 59 | 1009.3 |
| 20260506041328 | 67 | 123 | 0.0 | 5.0 | 0.00 | 0.00 | 0.00 | 59 | 1009.3 |
| 20260506041000 | 67 | 90 | 0.0 | 5.0 | 0.00 | 0.00 | 0.00 | 58 | 1009.3 |
| 20260506040853 | 67 | 223 | 0.0 | 5.0 | 0.00 | 0.00 | 0.00 | 58 | 1009.3 |
| 20260506040748 | 67 | 0 | 0.0 | 1.0 | 0.00 | 0.00 | 0.00 | 58 | 1009.3 |
| 20260506040643 | 67 | 139 | 0.0 | 1.0 | 0.00 | 0.00 | 0.00 | 58 | 1009.3 |
| 20260506040535 | 67 | 22 | 0.0 | 1.0 | 0.00 | 0.00 | 0.00 | 58 | 1009.3 |
| 20260506040429 | 67 | 172 | 0.0 | 0.0 | 0.00 | 0.00 | 0.00 | 58 | 1009.3 |
| 20260506040107 | 67 | 174 | 0.0 | 2.0 | 0.00 | 0.00 | 0.00 | 58 | 1009.3 |
| 20260506040003 | 67 | 16 | 0.0 | 2.0 | 0.00 | 0.00 | 0.00 | 58 | 1009.3 |
| 20260506035902 | 67 | 113 | 0.0 | 2.0 | 0.00 | 0.00 | 0.00 | 58 | 1009.3 |
| 20260506035759 | 67 | 113 | 0.0 | 2.0 | 0.00 | 0.00 | 0.00 | 58 | 1009.3 |
| 20260506035654 | 67 | 104 | 0.0 | 2.0 | 0.00 | 0.00 | 0.00 | 58 | 1009.2 |
| 20260506035548 | 67 | 136 | 0.0 | 2.0 | 0.00 | 0.00 | 0.00 | 58 | 1009.2 |
| 20260506035444 | 67 | 142 | 0.0 | 2.0 | 0.00 | 0.00 | 0.00 | 58 | 1009.3 |
| 20260506035338 | 67 | 168 | 0.0 | 1.0 | 0.00 | 0.00 | 0.00 | 58 | 1009.3 |
| 20260506035017 | 68 | 138 | 0.0 | 1.0 | 0.00 | 0.00 | 0.00 | 57 | 1009.3 |
| 20260506034910 | 68 | 161 | 0.0 | 1.0 | 0.00 | 0.00 | 0.00 | 57 | 1009.2 |
| 20260506034807 | 68 | 154 | 0.0 | 1.0 | 0.00 | 0.00 | 0.00 | 57 | 1009.2 |
| 20260506034702 | 68 | 63 | 0.0 | 1.0 | 0.00 | 0.00 | 0.00 | 57 | 1009.3 |
| 20260506034558 | 68 | 63 | 0.0 | 1.0 | 0.00 | 0.00 | 0.00 | 57 | 1009.3 |
| 20260506034451 | 68 | 62 | 0.0 | 1.0 | 0.00 | 0.00 | 0.00 | 57 | 1009.3 |
| 20260506034348 | 68 | 232 | 0.0 | 1.0 | 0.00 | 0.00 | 0.00 | 56 | 1009.3 |
| 20260506034244 | 68 | 115 | 0.0 | 1.0 | 0.00 | 0.00 | 0.00 | 56 | 1009.3 |
| 20260506034138 | 68 | 93 | 0.0 | 1.0 | 0.00 | 0.00 | 0.00 | 56 | 1009.3 |
| 20260506034036 | 68 | 93 | 0.0 | 1.0 | 0.00 | 0.00 | 0.00 | 56 | 1009.2 |
| 20260506033709 | 68 | 27 | 0.0 | 0.0 | 0.00 | 0.00 | 0.00 | 56 | 1009.2 |
| 20260506033339 | 68 | 27 | 0.0 | 0.0 | 0.00 | 0.00 | 0.00 | 55 | 1009.3 |
| 20260506033235 | 68 | 27 | 0.0 | 0.0 | 0.00 | 0.00 | 0.00 | 55 | 1009.3 |
| 20260506033131 | 68 | 27 | 0.0 | 0.0 | 0.00 | 0.00 | 0.00 | 54 | 1009.3 |
| 20260506033029 | 68 | 27 | 0.0 | 0.0 | 0.00 | 0.00 | 0.00 | 54 | 1009.3 |
| 20260506032926 | 68 | 27 | 0.0 | 0.0 | 0.00 | 0.00 | 0.00 | 54 | 1009.3 |
| 20260506032820 | 68 | 27 | 0.0 | 0.0 | 0.00 | 0.00 | 0.00 | 55 | 1009.4 |
| 20260506032718 | 68 | 27 | 0.0 | 0.0 | 0.00 | 0.00 | 0.00 | 55 | 1009.3 |
| 20260506032612 | 68 | 27 | 0.0 | 0.0 | 0.00 | 0.00 | 0.00 | 54 | 1009.3 |
| 20260506032509 | 68 | 27 | 0.0 | 0.0 | 0.00 | 0.00 | 0.00 | 54 | 1009.3 |
| 20260506032407 | 68 | 26 | 0.0 | 0.0 | 0.00 | 0.00 | 0.00 | 54 | 1009.3 |
| 20260506032305 | 68 | 27 | 0.0 | 0.0 | 0.00 | 0.00 | 0.00 | 54 | 1009.3 |
| 20260506031933 | 68 | 27 | 0.0 | 0.0 | 0.00 | 0.00 | 0.00 | 54 | 1009.4 |
| 20260506031829 | 68 | 27 | 0.0 | 0.0 | 0.00 | 0.00 | 0.00 | 54 | 1009.3 |
| 20260506031726 | 68 | 26 | 0.0 | 0.0 | 0.00 | 0.00 | 0.00 | 54 | 1009.3 |
| 20260506031619 | 68 | 27 | 0.0 | 0.0 | 0.00 | 0.00 | 0.00 | 54 | 1009.3 |
| 20260506031252 | 68 | 27 | 0.0 | 0.0 | 0.00 | 0.00 | 0.00 | 54 | 1009.3 |
| 20260506031149 | 68 | 59 | 0.0 | 0.0 | 0.00 | 0.00 | 0.00 | 54 | 1009.3 |
| 20260506031045 | 68 | 91 | 0.0 | 0.0 | 0.00 | 0.00 | 0.00 | 54 | 1009.3 |
| 20260506030940 | 68 | 91 | 0.0 | 0.0 | 0.00 | 0.00 | 0.00 | 53 | 1009.3 |
| 20260506030833 | 68 | 91 | 0.0 | 0.0 | 0.00 | 0.00 | 0.00 | 53 | 1009.3 |
| 20260506030729 | 68 | 91 | 0.0 | 0.0 | 0.00 | 0.00 | 0.00 | 53 | 1009.3 |
| 20260506030624 | 68 | 91 | 0.0 | 0.0 | 0.00 | 0.00 | 0.00 | 53 | 1009.3 |
| 20260506025813 | 69 | 113 | 0.0 | 1.0 | 0.00 | 0.00 | 0.00 | 52 | 1009.3 |
| 20260506025711 | 69 | 115 | 0.0 | 1.0 | 0.00 | 0.00 | 0.00 | 53 | 1009.3 |
| 20260506025605 | 69 | 104 | 0.0 | 1.0 | 0.00 | 0.00 | 0.00 | 52 | 1009.3 |
| 20260506025501 | 69 | 104 | 0.0 | 1.0 | 0.00 | 0.00 | 0.00 | 52 | 1009.3 |
| 20260506025359 | 69 | 104 | 0.0 | 1.0 | 0.00 | 0.00 | 0.00 | 52 | 1009.3 |
| 20260506025255 | 69 | 165 | 0.0 | 1.0 | 0.00 | 0.00 | 0.00 | 51 | 1009.3 |
| 20260506025152 | 69 | 118 | 0.0 | 1.0 | 0.00 | 0.00 | 0.00 | 51 | 1009.3 |
| 20260506025047 | 69 | 118 | 0.0 | 1.0 | 0.00 | 0.00 | 0.00 | 51 | 1009.4 |
| 20260506024943 | 69 | 85 | 0.0 | 1.0 | 0.00 | 0.00 | 0.00 | 51 | 1009.4 |
| 20260506024836 | 69 | 41 | 0.0 | 1.0 | 0.00 | 0.00 | 0.00 | 51 | 1009.4 |
| 20260506024515 | 69 | 90 | 0.0 | 0.0 | 0.00 | 0.00 | 0.00 | 51 | 1009.4 |
| 20260506024148 | 69 | 90 | 0.0 | 1.0 | 0.00 | 0.00 | 0.00 | 51 | 1009.4 |
| 20260506024041 | 69 | 90 | 0.0 | 1.0 | 0.00 | 0.00 | 0.00 | 51 | 1009.4 |
| 20260506023936 | 69 | 113 | 0.0 | 0.0 | 0.00 | 0.00 | 0.00 | 50 | 1009.3 |
| 20260506023352 | 70 | 113 | 0.0 | 1.0 | 0.00 | 0.00 | 0.00 | 50 | 1009.3 |
| 20260506023245 | 70 | 113 | 0.0 | 0.0 | 0.00 | 0.00 | 0.00 | 50 | 1009.3 |
| 20260506023141 | 70 | 113 | 0.0 | 0.0 | 0.00 | 0.00 | 0.00 | 50 | 1009.3 |
| 20260506023034 | 70 | 113 | 0.0 | 1.0 | 0.00 | 0.00 | 0.00 | 50 | 1009.3 |
| 20260506022930 | 70 | 113 | 0.0 | 1.0 | 0.00 | 0.00 | 0.00 | 49 | 1009.3 |
| 20260506022827 | 70 | 113 | 0.0 | 1.0 | 0.00 | 0.00 | 0.00 | 50 | 1009.4 |
| 20260506022725 | 70 | 113 | 0.0 | 1.0 | 0.00 | 0.00 | 0.00 | 49 | 1009.3 |
| 20260506021926 | 70 | 51 | 0.0 | 5.0 | 0.00 | 0.00 | 0.00 | 49 | 1009.4 |
| 20260506021819 | 70 | 51 | 0.0 | 5.0 | 0.00 | 0.00 | 0.00 | 48 | 1009.4 |
| 20260506021457 | 70 | 140 | 0.0 | 5.0 | 0.00 | 0.00 | 0.00 | 48 | 1009.4 |
| 20260506021354 | 70 | 109 | 0.0 | 2.0 | 0.00 | 0.00 | 0.00 | 48 | 1009.4 |
| 20260506021251 | 70 | 146 | 0.0 | 2.0 | 0.00 | 0.00 | 0.00 | 48 | 1009.4 |
| 20260506020922 | 70 | 148 | 0.0 | 1.0 | 0.00 | 0.00 | 0.00 | 48 | 1009.4 |
| 20260506020815 | 70 | 149 | 0.0 | 1.0 | 0.00 | 0.00 | 0.00 | 48 | 1009.4 |
| 20260506020709 | 70 | 198 | 0.0 | 1.0 | 0.00 | 0.00 | 0.00 | 48 | 1009.4 |
| 20260506020606 | 70 | 140 | 0.0 | 1.0 | 0.00 | 0.00 | 0.00 | 48 | 1009.4 |
| 20260506020241 | 70 | 125 | 0.0 | 1.0 | 0.00 | 0.00 | 0.00 | 48 | 1009.4 |
| 20260506020137 | 71 | 63 | 0.0 | 1.0 | 0.00 | 0.00 | 0.00 | 48 | 1009.5 |
| 20260506020030 | 71 | 143 | 0.0 | 1.0 | 0.00 | 0.00 | 0.00 | 47 | 1009.5 |
| 20260506015925 | 71 | 132 | 0.0 | 1.0 | 0.00 | 0.00 | 0.00 | 47 | 1009.5 |
| 20260506015820 | 71 | 63 | 0.0 | 1.0 | 0.00 | 0.00 | 0.00 | 48 | 1009.5 |
| 20260506015712 | 71 | 120 | 0.0 | 1.0 | 0.00 | 0.00 | 0.00 | 47 | 1009.5 |
| 20260506015349 | 71 | 197 | 0.0 | 1.0 | 0.00 | 0.00 | 0.00 | 47 | 1009.4 |
| 20260506015241 | 71 | 115 | 0.0 | 1.0 | 0.00 | 0.00 | 0.00 | 47 | 1009.3 |
| 20260506015136 | 71 | 115 | 0.0 | 1.0 | 0.00 | 0.00 | 0.00 | 46 | 1009.3 |
| 20260506015031 | 71 | 59 | 0.0 | 1.0 | 0.00 | 0.00 | 0.00 | 46 | 1009.3 |
| 20260506014704 | 71 | 81 | 0.0 | 1.0 | 0.00 | 0.00 | 0.00 | 46 | 1009.3 |
| 20260506014556 | 71 | 81 | 0.0 | 1.0 | 0.00 | 0.00 | 0.00 | 46 | 1009.3 |
| 20260506014449 | 71 | 81 | 0.0 | 0.0 | 0.00 | 0.00 | 0.00 | 46 | 1009.2 |
| 20260506014346 | 71 | 81 | 0.0 | 0.0 | 0.00 | 0.00 | 0.00 | 46 | 1009.2 |
| 20260506014239 | 71 | 57 | 0.0 | 0.0 | 0.00 | 0.00 | 0.00 | 46 | 1009.2 |
| 20260506014134 | 71 | 57 | 0.0 | 0.0 | 0.00 | 0.00 | 0.00 | 46 | 1009.2 |
| 20260506014026 | 71 | 57 | 0.0 | 2.0 | 0.00 | 0.00 | 0.00 | 46 | 1009.2 |
| 20260506013923 | 71 | 57 | 0.0 | 2.0 | 0.00 | 0.00 | 0.00 | 46 | 1009.2 |
| 20260506013819 | 71 | 57 | 0.0 | 2.0 | 0.00 | 0.00 | 0.00 | 46 | 1009.2 |
| 20260506013716 | 71 | 81 | 0.0 | 2.0 | 0.00 | 0.00 | 0.00 | 46 | 1009.2 |
| 20260506013609 | 71 | 101 | 0.0 | 2.0 | 0.00 | 0.00 | 0.00 | 46 | 1009.2 |
| 20260506013504 | 71 | 171 | 0.0 | 2.0 | 0.00 | 0.00 | 0.00 | 46 | 1009.2 |
| 20260506013358 | 71 | 121 | 0.0 | 2.0 | 0.00 | 0.00 | 0.00 | 46 | 1009.2 |
| 20260506013251 | 71 | 91 | 0.0 | 2.0 | 0.00 | 0.00 | 0.00 | 45 | 1009.1 |
| 20260506013147 | 71 | 95 | 0.0 | 2.0 | 0.00 | 0.00 | 0.00 | 46 | 1009.2 |
| 20260506013042 | 72 | 95 | 0.0 | 2.0 | 0.00 | 0.00 | 0.00 | 45 | 1009.1 |
| 20260506012935 | 72 | 95 | 0.0 | 2.0 | 0.00 | 0.00 | 0.00 | 45 | 1009.1 |
| 20260506012830 | 72 | 95 | 0.0 | 2.0 | 0.00 | 0.00 | 0.00 | 45 | 1009.2 |
| 20260506012728 | 72 | 112 | 0.0 | 2.0 | 0.00 | 0.00 | 0.00 | 44 | 1009.2 |
| 20260506012624 | 72 | 112 | 0.0 | 2.0 | 0.00 | 0.00 | 0.00 | 44 | 1009.1 |
| 20260506012517 | 72 | 112 | 0.0 | 2.0 | 0.00 | 0.00 | 0.00 | 45 | 1009.1 |
| 20260506012153 | 72 | 96 | 0.0 | 1.0 | 0.00 | 0.00 | 0.00 | 44 | 1009.1 |
| 20260506012047 | 72 | 96 | 0.0 | 1.0 | 0.00 | 0.00 | 0.00 | 44 | 1009.0 |
| 20260506011721 | 72 | 92 | 0.0 | 4.0 | 0.00 | 0.00 | 0.00 | 44 | 1009.0 |
| 20260506011356 | 72 | 130 | 0.0 | 4.0 | 0.00 | 0.00 | 0.00 | 44 | 1009.0 |
| 20260506010814 | 72 | 180 | 0.0 | 4.0 | 0.00 | 0.00 | 0.00 | 44 | 1008.9 |
| 20260506010710 | 72 | 180 | 0.0 | 4.0 | 0.00 | 0.00 | 0.00 | 43 | 1008.9 |
| 20260506010606 | 72 | 180 | 0.0 | 4.0 | 0.00 | 0.00 | 0.00 | 43 | 1008.8 |
| 20260506010503 | 72 | 17 | 0.0 | 3.0 | 0.00 | 0.00 | 0.00 | 43 | 1008.8 |
| 20260506010358 | 72 | 146 | 0.0 | 3.0 | 0.00 | 0.00 | 0.00 | 43 | 1008.8 |
| 20260506010255 | 72 | 103 | 0.0 | 3.0 | 0.00 | 0.00 | 0.00 | 43 | 1008.8 |
| 20260506010147 | 72 | 115 | 0.0 | 3.0 | 0.00 | 0.00 | 0.00 | 43 | 1008.8 |
| 20260506005818 | 72 | 105 | 0.0 | 4.0 | 0.00 | 0.00 | 0.00 | 44 | 1008.8 |
| 20260506005716 | 72 | 100 | 0.0 | 4.0 | 0.00 | 0.00 | 0.00 | 43 | 1008.8 |
| 20260506005610 | 73 | 94 | 0.0 | 4.0 | 0.00 | 0.00 | 0.00 | 43 | 1008.7 |
| 20260506005248 | 73 | 207 | 0.0 | 4.0 | 0.00 | 0.00 | 0.00 | 43 | 1008.7 |
| 20260506005143 | 73 | 84 | 0.0 | 4.0 | 0.00 | 0.00 | 0.00 | 43 | 1008.7 |
| 20260506004818 | 73 | 60 | 0.0 | 4.0 | 0.00 | 0.00 | 0.00 | 43 | 1008.7 |
| 20260506004716 | 73 | 302 | 0.0 | 4.0 | 0.00 | 0.00 | 0.00 | 42 | 1008.6 |
| 20260506004610 | 73 | 163 | 0.0 | 4.0 | 0.00 | 0.00 | 0.00 | 43 | 1008.6 |
| 20260506004506 | 73 | 140 | 0.0 | 4.0 | 0.00 | 0.00 | 0.00 | 43 | 1008.6 |
| 20260506004404 | 73 | 180 | 0.0 | 4.0 | 0.00 | 0.00 | 0.00 | 42 | 1008.6 |
| 20260506004300 | 73 | 66 | 0.0 | 4.0 | 0.00 | 0.00 | 0.00 | 42 | 1008.5 |
| 20260506004155 | 73 | 148 | 0.0 | 4.0 | 0.00 | 0.00 | 0.00 | 42 | 1008.5 |
| 20260506003832 | 74 | 59 | 0.0 | 3.0 | 0.00 | 0.00 | 0.00 | 41 | 1008.5 |
| 20260506003726 | 74 | 212 | 0.0 | 3.0 | 0.00 | 0.00 | 0.00 | 41 | 1008.5 |
| 20260506003619 | 74 | 69 | 0.0 | 3.0 | 0.00 | 0.00 | 0.00 | 42 | 1008.5 |
| 20260506003515 | 74 | 59 | 0.0 | 3.0 | 0.00 | 0.00 | 0.00 | 41 | 1008.5 |
| 20260506003411 | 74 | 213 | 0.0 | 3.0 | 0.00 | 0.00 | 0.00 | 41 | 1008.5 |
| 20260506003045 | 74 | 335 | 0.0 | 1.0 | 0.00 | 0.00 | 0.00 | 41 | 1008.4 |
| 20260506002942 | 74 | 75 | 0.0 | 1.0 | 0.00 | 0.00 | 0.00 | 40 | 1008.4 |
| 20260506002837 | 74 | 97 | 0.0 | 1.0 | 0.00 | 0.00 | 0.00 | 40 | 1008.4 |
| 20260506002731 | 74 | 221 | 0.0 | 1.0 | 0.00 | 0.00 | 0.00 | 40 | 1008.4 |
| 20260506002629 | 74 | 142 | 0.0 | 1.0 | 0.00 | 0.00 | 0.00 | 40 | 1008.3 |
| 20260506002522 | 75 | 142 | 0.0 | 1.0 | 0.00 | 0.00 | 0.00 | 40 | 1008.3 |
| 20260506002159 | 75 | 94 | 0.0 | 0.0 | 0.00 | 0.00 | 0.00 | 39 | 1008.3 |
| 20260506002053 | 75 | 123 | 0.0 | 0.0 | 0.00 | 0.00 | 0.00 | 38 | 1008.4 |
| 20260506001949 | 75 | 123 | 0.0 | 0.0 | 0.00 | 0.00 | 0.00 | 39 | 1008.3 |
| 20260506001845 | 75 | 123 | 0.0 | 0.0 | 0.00 | 0.00 | 0.00 | 38 | 1008.3 |
| 20260506001742 | 75 | 123 | 0.0 | 0.0 | 0.00 | 0.00 | 0.00 | 38 | 1008.3 |
| 20260506001639 | 75 | 123 | 0.0 | 1.0 | 0.00 | 0.00 | 0.00 | 38 | 1008.3 |
| 20260506001534 | 75 | 123 | 0.0 | 1.0 | 0.00 | 0.00 | 0.00 | 38 | 1008.3 |
| 20260506001430 | 75 | 143 | 0.0 | 0.0 | 0.00 | 0.00 | 0.00 | 38 | 1008.2 |
| 20260506001105 | 75 | 150 | 0.0 | 0.0 | 0.00 | 0.00 | 0.00 | 38 | 1008.3 |
| 20260506000958 | 75 | 150 | 0.0 | 0.0 | 0.00 | 0.00 | 0.00 | 37 | 1008.3 |
| 20260506000635 | 75 | 86 | 0.0 | 2.0 | 0.00 | 0.00 | 0.00 | 37 | 1008.3 |
| 20260506000529 | 75 | 121 | 0.0 | 2.0 | 0.00 | 0.00 | 0.00 | 37 | 1008.3 |
| 20260506000426 | 76 | 101 | 0.0 | 2.0 | 0.00 | 0.00 | 0.00 | 37 | 1008.3 |
| 20260506000319 | 76 | 111 | 0.0 | 2.0 | 0.00 | 0.00 | 0.00 | 37 | 1008.2 |
| 20260506000214 | 76 | 111 | 0.0 | 2.0 | 0.00 | 0.00 | 0.00 | 37 | 1008.3 |
| 20260506000110 | 76 | 71 | 0.0 | 0.0 | 0.00 | 0.00 | 0.00 | 37 | 1008.3 |
| 20260506000002 | 76 | 71 | 0.0 | 0.0 | 0.00 | 0.00 | 0.00 | 36 | 1008.3 |
| 20260505235855 | 76 | 71 | 0.0 | 0.0 | 0.00 | 0.00 | 0.00 | 36 | 1008.2 |
| 20260505235529 | 76 | 146 | 0.0 | 1.0 | 0.00 | 0.00 | 0.00 | 36 | 1008.1 |
| 20260505235426 | 76 | 146 | 0.0 | 1.0 | 0.00 | 0.00 | 0.00 | 36 | 1008.2 |
| 20260505235322 | 76 | 90 | 0.0 | 1.0 | 0.00 | 0.00 | 0.00 | 35 | 1008.2 |
| 20260505235217 | 76 | 135 | 0.0 | 0.0 | 0.00 | 0.00 | 0.00 | 35 | 1008.1 |
| 20260505235114 | 76 | 136 | 0.0 | 3.0 | 0.00 | 0.00 | 0.00 | 35 | 1008.1 |
| 20260505235009 | 76 | 135 | 0.0 | 3.0 | 0.00 | 0.00 | 0.00 | 35 | 1008.1 |
| 20260505234906 | 76 | 135 | 0.0 | 3.0 | 0.00 | 0.00 | 0.00 | 35 | 1008.1 |
| 20260505234759 | 76 | 136 | 0.0 | 3.0 | 0.00 | 0.00 | 0.00 | 35 | 1008.1 |
| 20260505234653 | 76 | 148 | 0.0 | 3.0 | 0.00 | 0.00 | 0.00 | 35 | 1008.1 |
| 20260505234550 | 76 | 153 | 0.0 | 3.0 | 0.00 | 0.00 | 0.00 | 36 | 1008.1 |
| 20260505234224 | 77 | 167 | 0.0 | 5.0 | 0.00 | 0.00 | 0.00 | 35 | 1008.1 |
| 20260505234117 | 77 | 129 | 0.0 | 5.0 | 0.00 | 0.00 | 0.00 | 35 | 1008.1 |
| 20260505234014 | 77 | 129 | 0.0 | 5.0 | 0.00 | 0.00 | 0.00 | 35 | 1008.1 |
| 20260505233909 | 77 | 134 | 0.0 | 5.0 | 0.00 | 0.00 | 0.00 | 34 | 1008.1 |
| 20260505233802 | 77 | 111 | 1.0 | 5.0 | 0.00 | 0.00 | 0.00 | 34 | 1008.2 |
| 20260505232953 | 77 | 28 | 1.0 | 6.0 | 0.00 | 0.00 | 0.00 | 34 | 1008.0 |
| 20260505232849 | 77 | 152 | 0.0 | 6.0 | 0.00 | 0.00 | 0.00 | 33 | 1008.1 |
| 20260505232743 | 77 | 119 | 0.0 | 6.0 | 0.00 | 0.00 | 0.00 | 34 | 1008.1 |
| 20260505232421 | 77 | 128 | 1.0 | 7.0 | 0.00 | 0.00 | 0.00 | 33 | 1008.1 |
| 20260505232313 | 77 | 243 | 1.0 | 7.0 | 0.00 | 0.00 | 0.00 | 32 | 1008.1 |
| 20260505232209 | 77 | 140 | 1.0 | 7.0 | 0.00 | 0.00 | 0.00 | 32 | 1008.2 |
| 20260505232105 | 77 | 232 | 0.0 | 7.0 | 0.00 | 0.00 | 0.00 | 33 | 1008.2 |
| 20260505231958 | 77 | 355 | 0.0 | 7.0 | 0.00 | 0.00 | 0.00 | 33 | 1008.1 |
| 20260505231851 | 77 | 259 | 1.0 | 7.0 | 0.00 | 0.00 | 0.00 | 32 | 1008.1 |
| 20260505231746 | 77 | 0 | 1.0 | 7.0 | 0.00 | 0.00 | 0.00 | 32 | 1008.1 |
| 20260505231420 | 77 | 111 | 1.0 | 8.0 | 0.00 | 0.00 | 0.00 | 32 | 1008.1 |
| 20260505231318 | 78 | 54 | 1.0 | 8.0 | 0.00 | 0.00 | 0.00 | 32 | 1008.2 |
| 20260505231214 | 77 | 160 | 1.0 | 8.0 | 0.00 | 0.00 | 0.00 | 32 | 1008.2 |
| 20260505231107 | 77 | 135 | 1.0 | 8.0 | 0.00 | 0.00 | 0.00 | 32 | 1008.2 |
| 20260505231004 | 78 | 157 | 1.0 | 8.0 | 0.00 | 0.00 | 0.00 | 31 | 1008.1 |
| 20260505230857 | 78 | 144 | 2.0 | 8.0 | 0.00 | 0.00 | 0.00 | 31 | 1008.1 |
| 20260505230750 | 78 | 140 | 2.0 | 8.0 | 0.00 | 0.00 | 0.00 | 33 | 1008.2 |
| 20260505230422 | 78 | 194 | 2.0 | 8.0 | 0.00 | 0.00 | 0.00 | 32 | 1008.1 |
| 20260505230319 | 78 | 194 | 2.0 | 8.0 | 0.00 | 0.00 | 0.00 | 33 | 1008.1 |
| 20260505230211 | 78 | 268 | 2.0 | 8.0 | 0.00 | 0.00 | 0.00 | 32 | 1008.2 |
| 20260505230106 | 78 | 92 | 2.0 | 8.0 | 0.00 | 0.00 | 0.00 | 31 | 1008.2 |
| 20260505230002 | 78 | 227 | 2.0 | 8.0 | 0.00 | 0.00 | 0.00 | 30 | 1008.1 |
| 20260505225856 | 78 | 98 | 2.0 | 8.0 | 0.00 | 0.00 | 0.00 | 30 | 1008.2 |
| 20260505225750 | 78 | 163 | 1.0 | 8.0 | 0.00 | 0.00 | 0.00 | 30 | 1008.2 |
| 20260505225646 | 78 | 180 | 1.0 | 8.0 | 0.00 | 0.00 | 0.00 | 31 | 1008.2 |
| 20260505225544 | 78 | 247 | 1.0 | 8.0 | 0.00 | 0.00 | 0.00 | 32 | 1008.1 |
| 20260505225436 | 78 | 5 | 1.0 | 7.0 | 0.00 | 0.00 | 0.00 | 31 | 1008.1 |
| 20260505225330 | 78 | 302 | 1.0 | 7.0 | 0.00 | 0.00 | 0.00 | 32 | 1008.1 |
| 20260505225227 | 78 | 151 | 1.0 | 7.0 | 0.00 | 0.00 | 0.00 | 35 | 1008.2 |
| 20260505224901 | 78 | 153 | 1.0 | 7.0 | 0.00 | 0.00 | 0.00 | 35 | 1008.0 |
| 20260505224753 | 78 | 141 | 1.0 | 7.0 | 0.00 | 0.00 | 0.00 | 34 | 1008.0 |
| 20260505224649 | 78 | 152 | 1.0 | 7.0 | 0.00 | 0.00 | 0.00 | 33 | 1008.0 |
| 20260505224544 | 78 | 205 | 1.0 | 7.0 | 0.00 | 0.00 | 0.00 | 34 | 1008.1 |
| 20260505224440 | 78 | 350 | 1.0 | 7.0 | 0.00 | 0.00 | 0.00 | 34 | 1008.1 |
| 20260505224108 | 78 | 232 | 1.0 | 6.0 | 0.00 | 0.00 | 0.00 | 33 | 1008.1 |
| 20260505224004 | 78 | 103 | 1.0 | 6.0 | 0.00 | 0.00 | 0.00 | 33 | 1008.1 |
| 20260505223857 | 78 | 182 | 1.0 | 6.0 | 0.00 | 0.00 | 0.00 | 33 | 1008.1 |
| 20260505223755 | 78 | 167 | 1.0 | 6.0 | 0.00 | 0.00 | 0.00 | 33 | 1008.0 |
| 20260505223649 | 79 | 132 | 1.0 | 6.0 | 0.00 | 0.00 | 0.00 | 33 | 1008.0 |
| 20260505223545 | 79 | 131 | 1.0 | 6.0 | 0.00 | 0.00 | 0.00 | 34 | 1008.0 |
| 20260505223443 | 79 | 225 | 1.0 | 5.0 | 0.00 | 0.00 | 0.00 | 34 | 1007.9 |
| 20260505223121 | 79 | 44 | 1.0 | 11.0 | 0.00 | 0.00 | 0.00 | 33 | 1008.0 |
| 20260505223014 | 79 | 54 | 1.0 | 11.0 | 0.00 | 0.00 | 0.00 | 33 | 1008.0 |
| 20260505222907 | 79 | 192 | 1.0 | 11.0 | 0.00 | 0.00 | 0.00 | 33 | 1008.1 |
| 20260505222800 | 79 | 139 | 1.0 | 11.0 | 0.00 | 0.00 | 0.00 | 33 | 1008.1 |
| 20260505222654 | 79 | 197 | 1.0 | 11.0 | 0.00 | 0.00 | 0.00 | 33 | 1008.1 |
| 20260505222551 | 79 | 63 | 1.0 | 11.0 | 0.00 | 0.00 | 0.00 | 33 | 1008.0 |
| 20260505222445 | 79 | 121 | 1.0 | 11.0 | 0.00 | 0.00 | 0.00 | 33 | 1008.0 |
| 20260505222342 | 79 | 109 | 1.0 | 11.0 | 0.00 | 0.00 | 0.00 | 32 | 1008.1 |
| 20260505222020 | 79 | 187 | 1.0 | 11.0 | 0.00 | 0.00 | 0.00 | 32 | 1008.0 |
| 20260505221438 | 79 | 227 | 2.0 | 11.0 | 0.00 | 0.00 | 0.00 | 31 | 1008.1 |
| 20260505221336 | 79 | 171 | 2.0 | 9.0 | 0.00 | 0.00 | 0.00 | 31 | 1008.0 |
| 20260505221234 | 79 | 221 | 2.0 | 9.0 | 0.00 | 0.00 | 0.00 | 30 | 1007.9 |
| 20260505220906 | 79 | 119 | 2.0 | 9.0 | 0.00 | 0.00 | 0.00 | 31 | 1008.0 |
| 20260505220803 | 79 | 82 | 2.0 | 9.0 | 0.00 | 0.00 | 0.00 | 31 | 1008.0 |
| 20260505220701 | 79 | 107 | 2.0 | 9.0 | 0.00 | 0.00 | 0.00 | 31 | 1008.0 |
| 20260505220555 | 79 | 59 | 2.0 | 9.0 | 0.00 | 0.00 | 0.00 | 31 | 1008.0 |
| 20260505220448 | 79 | 111 | 2.0 | 8.0 | 0.00 | 0.00 | 0.00 | 31 | 1008.2 |
| 20260505220118 | 79 | 43 | 2.0 | 8.0 | 0.00 | 0.00 | 0.00 | 31 | 1008.1 |
| 20260505220013 | 79 | 242 | 2.0 | 8.0 | 0.00 | 0.00 | 0.00 | 29 | 1008.1 |
| 20260505215908 | 79 | 228 | 2.0 | 8.0 | 0.00 | 0.00 | 0.00 | 31 | 1008.1 |
| 20260505215801 | 79 | 175 | 1.0 | 8.0 | 0.00 | 0.00 | 0.00 | 31 | 1008.1 |
| 20260505215658 | 80 | 100 | 1.0 | 8.0 | 0.00 | 0.00 | 0.00 | 31 | 1008.0 |
| 20260505215552 | 80 | 120 | 1.0 | 8.0 | 0.00 | 0.00 | 0.00 | 30 | 1008.0 |
| 20260505215445 | 80 | 128 | 1.0 | 8.0 | 0.00 | 0.00 | 0.00 | 29 | 1007.8 |
| 20260505215341 | 80 | 192 | 1.0 | 7.0 | 0.00 | 0.00 | 0.00 | 32 | 1008.1 |
| 20260505214753 | 80 | 217 | 2.0 | 20.0 | 0.00 | 0.00 | 0.00 | 30 | 1008.1 |
| 20260505214647 | 80 | 149 | 2.0 | 20.0 | 0.00 | 0.00 | 0.00 | 29 | 1008.1 |
| 20260505214543 | 80 | 15 | 2.0 | 20.0 | 0.00 | 0.00 | 0.00 | 31 | 1008.1 |
| 20260505214439 | 80 | 139 | 2.0 | 20.0 | 0.00 | 0.00 | 0.00 | 31 | 1008.0 |
| 20260505214333 | 80 | 62 | 2.0 | 20.0 | 0.00 | 0.00 | 0.00 | 31 | 1008.0 |
| 20260505214228 | 80 | 82 | 2.0 | 20.0 | 0.00 | 0.00 | 0.00 | 32 | 1008.1 |
| 20260505214120 | 80 | 157 | 1.0 | 20.0 | 0.00 | 0.00 | 0.00 | 31 | 1008.0 |
| 20260505214013 | 80 | 97 | 2.0 | 20.0 | 0.00 | 0.00 | 0.00 | 31 | 1007.9 |
| 20260505213910 | 80 | 219 | 2.0 | 20.0 | 0.00 | 0.00 | 0.00 | 31 | 1008.0 |
| 20260505213808 | 80 | 140 | 2.0 | 20.0 | 0.00 | 0.00 | 0.00 | 31 | 1008.0 |
| 20260505213703 | 80 | 220 | 2.0 | 20.0 | 0.00 | 0.00 | 0.00 | 30 | 1007.9 |
| 20260505213556 | 80 | 182 | 2.0 | 20.0 | 0.00 | 0.00 | 0.00 | 32 | 1007.9 |
| 20260505213454 | 80 | 93 | 2.0 | 20.0 | 0.00 | 0.00 | 0.00 | 32 | 1008.0 |
| 20260505213347 | 80 | 141 | 2.0 | 20.0 | 0.00 | 0.00 | 0.00 | 31 | 1008.0 |
| 20260505213024 | 80 | 56 | 2.0 | 20.0 | 0.00 | 0.00 | 0.00 | 32 | 1007.9 |
| 20260505212922 | 80 | 228 | 2.0 | 20.0 | 0.00 | 0.00 | 0.00 | 31 | 1007.9 |
| 20260505212817 | 80 | 346 | 1.0 | 9.0 | 0.00 | 0.00 | 0.00 | 32 | 1008.0 |
| 20260505212712 | 80 | 130 | 1.0 | 9.0 | 0.00 | 0.00 | 0.00 | 33 | 1007.9 |
| 20260505212609 | 80 | 236 | 1.0 | 9.0 | 0.00 | 0.00 | 0.00 | 31 | 1007.9 |
| 20260505212502 | 80 | 284 | 1.0 | 9.0 | 0.00 | 0.00 | 0.00 | 31 | 1007.8 |
| 20260505212354 | 81 | 145 | 1.0 | 9.0 | 0.00 | 0.00 | 0.00 | 33 | 1007.9 |
| 20260505212248 | 81 | 214 | 2.0 | 9.0 | 0.00 | 0.00 | 0.00 | 33 | 1007.8 |
| 20260505212146 | 81 | 34 | 2.0 | 9.0 | 0.00 | 0.00 | 0.00 | 34 | 1007.8 |
| 20260505212041 | 81 | 269 | 2.0 | 9.0 | 0.00 | 0.00 | 0.00 | 33 | 1007.8 |
| 20260505211717 | 81 | 134 | 1.0 | 9.0 | 0.00 | 0.00 | 0.00 | 33 | 1007.8 |
| 20260505211615 | 81 | 125 | 1.0 | 9.0 | 0.00 | 0.00 | 0.00 | 32 | 1007.8 |
| 20260505211249 | 81 | 226 | 0.0 | 7.0 | 0.00 | 0.00 | 0.00 | 35 | 1007.9 |
| 20260505211141 | 81 | 109 | 0.0 | 6.0 | 0.00 | 0.00 | 0.00 | 35 | 1007.9 |
| 20260505211033 | 81 | 234 | 1.0 | 6.0 | 0.00 | 0.00 | 0.00 | 35 | 1007.9 |
| 20260505210931 | 81 | 241 | 1.0 | 6.0 | 0.00 | 0.00 | 0.00 | 35 | 1007.9 |
| 20260505210829 | 81 | 255 | 1.0 | 6.0 | 0.00 | 0.00 | 0.00 | 35 | 1007.9 |
| 20260505210500 | 81 | 101 | 1.0 | 6.0 | 0.00 | 0.00 | 0.00 | 33 | 1007.8 |
| 20260505210354 | 81 | 279 | 1.0 | 6.0 | 0.00 | 0.00 | 0.00 | 33 | 1007.8 |
| 20260505210250 | 81 | 200 | 1.0 | 11.0 | 0.00 | 0.00 | 0.00 | 34 | 1007.8 |
| 20260505210143 | 81 | 27 | 1.0 | 11.0 | 0.00 | 0.00 | 0.00 | 34 | 1007.8 |
| 20260505210040 | 81 | 115 | 1.0 | 11.0 | 0.00 | 0.00 | 0.00 | 33 | 1007.8 |
| 20260505205937 | 81 | 152 | 1.0 | 11.0 | 0.00 | 0.00 | 0.00 | 31 | 1007.8 |
| 20260505205830 | 81 | 64 | 1.0 | 11.0 | 0.00 | 0.00 | 0.00 | 32 | 1007.8 |
| 20260505205727 | 81 | 297 | 1.0 | 11.0 | 0.00 | 0.00 | 0.00 | 31 | 1007.8 |
| 20260505205625 | 81 | 130 | 2.0 | 11.0 | 0.00 | 0.00 | 0.00 | 32 | 1007.8 |
| 20260505205305 | 81 | 227 | 3.0 | 11.0 | 0.00 | 0.00 | 0.00 | 31 | 1007.8 |
| 20260505205153 | 81 | 180 | 3.0 | 11.0 | 0.00 | 0.00 | 0.00 | 30 | 1007.9 |
| 20260505205047 | 81 | 51 | 3.0 | 11.0 | 0.00 | 0.00 | 0.00 | 28 | 1008.0 |
| 20260505204940 | 81 | 119 | 3.0 | 11.0 | 0.00 | 0.00 | 0.00 | 30 | 1007.9 |
| 20260505204836 | 81 | 192 | 3.0 | 11.0 | 0.00 | 0.00 | 0.00 | 29 | 1007.9 |
| 20260505204731 | 81 | 198 | 3.0 | 11.0 | 0.00 | 0.00 | 0.00 | 29 | 1008.0 |
| 20260505204624 | 81 | 259 | 3.0 | 11.0 | 0.00 | 0.00 | 0.00 | 30 | 1007.9 |
| 20260505204516 | 81 | 201 | 3.0 | 11.0 | 0.00 | 0.00 | 0.00 | 29 | 1007.8 |
| 20260505204411 | 81 | 84 | 3.0 | 11.0 | 0.00 | 0.00 | 0.00 | 29 | 1007.9 |
| 20260505204309 | 81 | 152 | 2.0 | 11.0 | 0.00 | 0.00 | 0.00 | 30 | 1007.8 |
| 20260505203946 | 81 | 147 | 1.0 | 9.0 | 0.00 | 0.00 | 0.00 | 31 | 1007.9 |
| 20260505203841 | 81 | 204 | 1.0 | 9.0 | 0.00 | 0.00 | 0.00 | 31 | 1007.8 |
| 20260505203734 | 82 | 136 | 1.0 | 9.0 | 0.00 | 0.00 | 0.00 | 31 | 1007.9 |
| 20260505203630 | 81 | 228 | 1.0 | 9.0 | 0.00 | 0.00 | 0.00 | 32 | 1007.8 |
| 20260505203522 | 81 | 148 | 1.0 | 9.0 | 0.00 | 0.00 | 0.00 | 32 | 1007.8 |
| 20260505203152 | 81 | 16 | 1.0 | 9.0 | 0.00 | 0.00 | 0.00 | 32 | 1007.9 |
| 20260505203049 | 81 | 217 | 1.0 | 9.0 | 0.00 | 0.00 | 0.00 | 32 | 1007.9 |
| 20260505202945 | 81 | 65 | 1.0 | 9.0 | 0.00 | 0.00 | 0.00 | 31 | 1007.9 |
| 20260505202839 | 81 | 188 | 2.0 | 9.0 | 0.00 | 0.00 | 0.00 | 31 | 1007.9 |
| 20260505202732 | 81 | 243 | 2.0 | 9.0 | 0.00 | 0.00 | 0.00 | 31 | 1007.9 |
| 20260505202627 | 81 | 194 | 2.0 | 9.0 | 0.00 | 0.00 | 0.00 | 31 | 1007.9 |
| 20260505202521 | 81 | 244 | 2.0 | 8.0 | 0.00 | 0.00 | 0.00 | 31 | 1007.9 |
| 20260505202418 | 81 | 51 | 2.0 | 8.0 | 0.00 | 0.00 | 0.00 | 31 | 1007.8 |
| 20260505202315 | 81 | 148 | 2.0 | 8.0 | 0.00 | 0.00 | 0.00 | 29 | 1007.9 |
| 20260505202211 | 81 | 133 | 2.0 | 8.0 | 0.00 | 0.00 | 0.00 | 31 | 1008.0 |
| 20260505201845 | 81 | 118 | 3.0 | 8.0 | 0.00 | 0.00 | 0.00 | 30 | 1007.9 |
| 20260505201743 | 81 | 123 | 3.0 | 8.0 | 0.00 | 0.00 | 0.00 | 30 | 1007.9 |
| 20260505201156 | 82 | 147 | 2.0 | 8.0 | 0.00 | 0.00 | 0.00 | 30 | 1007.9 |
| 20260505201051 | 82 | 250 | 2.0 | 8.0 | 0.00 | 0.00 | 0.00 | 31 | 1007.9 |
| 20260505200947 | 82 | 221 | 2.0 | 8.0 | 0.00 | 0.00 | 0.00 | 31 | 1008.1 |
| 20260505200843 | 82 | 65 | 2.0 | 8.0 | 0.00 | 0.00 | 0.00 | 30 | 1008.1 |
| 20260505200740 | 82 | 295 | 2.0 | 8.0 | 0.00 | 0.00 | 0.00 | 29 | 1007.9 |
| 20260505200637 | 82 | 194 | 2.0 | 8.0 | 0.00 | 0.00 | 0.00 | 31 | 1008.0 |
| 20260505200535 | 82 | 126 | 2.0 | 7.0 | 0.00 | 0.00 | 0.00 | 30 | 1008.0 |
| 20260505200431 | 82 | 180 | 2.0 | 7.0 | 0.00 | 0.00 | 0.00 | 30 | 1008.0 |
| 20260505200329 | 82 | 335 | 2.0 | 7.0 | 0.00 | 0.00 | 0.00 | 29 | 1007.9 |
| 20260505200228 | 82 | 246 | 2.0 | 7.0 | 0.00 | 0.00 | 0.00 | 29 | 1007.9 |
| 20260505200123 | 82 | 219 | 2.0 | 7.0 | 0.00 | 0.00 | 0.00 | 29 | 1008.0 |
| 20260505200021 | 82 | 224 | 2.0 | 7.0 | 0.00 | 0.00 | 0.00 | 30 | 1007.9 |
| 20260505195913 | 82 | 163 | 2.0 | 7.0 | 0.00 | 0.00 | 0.00 | 29 | 1008.0 |
| 20260505195811 | 82 | 152 | 2.0 | 7.0 | 0.00 | 0.00 | 0.00 | 29 | 1008.0 |
| 20260505195707 | 82 | 61 | 1.0 | 5.0 | 0.00 | 0.00 | 0.00 | 29 | 1008.0 |
| 20260505195339 | 82 | 288 | 1.0 | 5.0 | 0.00 | 0.00 | 0.00 | 31 | 1008.0 |
| 20260505195236 | 82 | 38 | 1.0 | 7.0 | 0.00 | 0.00 | 0.00 | 30 | 1007.9 |
| 20260505195131 | 82 | 65 | 1.0 | 7.0 | 0.00 | 0.00 | 0.00 | 29 | 1008.0 |
| 20260505195027 | 82 | 266 | 1.0 | 7.0 | 0.00 | 0.00 | 0.00 | 31 | 1008.0 |
| 20260505194923 | 82 | 44 | 2.0 | 7.0 | 0.00 | 0.00 | 0.00 | 29 | 1008.0 |
| 20260505194819 | 82 | 303 | 2.0 | 7.0 | 0.00 | 0.00 | 0.00 | 31 | 1008.0 |
| 20260505194713 | 82 | 210 | 2.0 | 7.0 | 0.00 | 0.00 | 0.00 | 30 | 1008.1 |
| 20260505194608 | 82 | 123 | 2.0 | 7.0 | 0.00 | 0.00 | 0.00 | 30 | 1007.9 |
| 20260505194501 | 83 | 355 | 2.0 | 7.0 | 0.00 | 0.00 | 0.00 | 29 | 1008.0 |
| 20260505194356 | 83 | 91 | 2.0 | 7.0 | 0.00 | 0.00 | 0.00 | 28 | 1008.0 |
| 20260505194250 | 83 | 163 | 2.0 | 7.0 | 0.00 | 0.00 | 0.00 | 29 | 1007.9 |
| 20260505194148 | 83 | 60 | 2.0 | 11.0 | 0.00 | 0.00 | 0.00 | 28 | 1008.0 |
| 20260505194040 | 83 | 223 | 2.0 | 11.0 | 0.00 | 0.00 | 0.00 | 28 | 1007.8 |
| 20260505193934 | 83 | 290 | 2.0 | 11.0 | 0.00 | 0.00 | 0.00 | 28 | 1008.0 |
| 20260505193827 | 83 | 90 | 2.0 | 11.0 | 0.00 | 0.00 | 0.00 | 29 | 1007.9 |
| 20260505193723 | 83 | 108 | 2.0 | 11.0 | 0.00 | 0.00 | 0.00 | 28 | 1008.0 |
| 20260505193356 | 83 | 209 | 2.0 | 11.0 | 0.00 | 0.00 | 0.00 | 28 | 1008.0 |
| 20260505193028 | 83 | 189 | 3.0 | 11.0 | 0.00 | 0.00 | 0.00 | 28 | 1008.1 |
| 20260505192925 | 83 | 28 | 3.0 | 11.0 | 0.00 | 0.00 | 0.00 | 28 | 1008.1 |
| 20260505192819 | 83 | 198 | 3.0 | 11.0 | 0.00 | 0.00 | 0.00 | 29 | 1008.1 |
| 20260505192455 | 83 | 300 | 3.0 | 11.0 | 0.00 | 0.00 | 0.00 | 28 | 1008.1 |
| 20260505192350 | 83 | 89 | 3.0 | 11.0 | 0.00 | 0.00 | 0.00 | 28 | 1008.3 |
| 20260505192246 | 83 | 272 | 3.0 | 9.0 | 0.00 | 0.00 | 0.00 | 26 | 1008.2 |
| 20260505192139 | 83 | 158 | 2.0 | 9.0 | 0.00 | 0.00 | 0.00 | 29 | 1008.3 |
| 20260505192035 | 83 | 84 | 2.0 | 9.0 | 0.00 | 0.00 | 0.00 | 28 | 1008.2 |
| 20260505191930 | 83 | 86 | 2.0 | 9.0 | 0.00 | 0.00 | 0.00 | 27 | 1008.3 |
| 20260505191823 | 84 | 274 | 2.0 | 9.0 | 0.00 | 0.00 | 0.00 | 30 | 1008.3 |
| 20260505191722 | 83 | 142 | 2.0 | 9.0 | 0.00 | 0.00 | 0.00 | 27 | 1008.3 |
| 20260505191359 | 83 | 244 | 2.0 | 9.0 | 0.00 | 0.00 | 0.00 | 28 | 1008.5 |
| 20260505191035 | 83 | 284 | 2.0 | 8.0 | 0.00 | 0.00 | 0.00 | 28 | 1008.5 |
| 20260505190929 | 83 | 132 | 2.0 | 8.0 | 0.00 | 0.00 | 0.00 | 31 | 1008.6 |
| 20260505190823 | 83 | 155 | 2.0 | 8.0 | 0.00 | 0.00 | 0.00 | 29 | 1008.5 |
| 20260505190716 | 83 | 189 | 2.0 | 8.0 | 0.00 | 0.00 | 0.00 | 27 | 1008.5 |
| 20260505190614 | 84 | 136 | 2.0 | 8.0 | 0.00 | 0.00 | 0.00 | 28 | 1008.5 |
| 20260505190509 | 84 | 119 | 2.0 | 8.0 | 0.00 | 0.00 | 0.00 | 30 | 1008.5 |
| 20260505190402 | 84 | 13 | 2.0 | 8.0 | 0.00 | 0.00 | 0.00 | 28 | 1008.6 |
| 20260505190300 | 84 | 156 | 2.0 | 8.0 | 0.00 | 0.00 | 0.00 | 26 | 1008.6 |
| 20260505190154 | 84 | 249 | 2.0 | 8.0 | 0.00 | 0.00 | 0.00 | 27 | 1008.7 |
| 20260505190051 | 84 | 142 | 2.0 | 8.0 | 0.00 | 0.00 | 0.00 | 27 | 1008.6 |
| 20260505185948 | 83 | 204 | 2.0 | 8.0 | 0.00 | 0.00 | 0.00 | 28 | 1008.7 |
| 20260505185844 | 83 | 355 | 2.0 | 8.0 | 0.00 | 0.00 | 0.00 | 28 | 1008.7 |
| 20260505185738 | 84 | 15 | 2.0 | 8.0 | 0.00 | 0.00 | 0.00 | 28 | 1008.7 |
| 20260505185634 | 84 | 115 | 2.0 | 8.0 | 0.00 | 0.00 | 0.00 | 29 | 1008.7 |
| 20260505185526 | 84 | 144 | 2.0 | 8.0 | 0.00 | 0.00 | 0.00 | 28 | 1008.8 |
| 20260505185200 | 83 | 155 | 3.0 | 12.0 | 0.00 | 0.00 | 0.00 | 28 | 1008.9 |
| 20260505185056 | 83 | 54 | 3.0 | 12.0 | 0.00 | 0.00 | 0.00 | 28 | 1009.0 |
| 20260505184948 | 83 | 196 | 3.0 | 12.0 | 0.00 | 0.00 | 0.00 | 28 | 1008.9 |
| 20260505184846 | 83 | 160 | 3.0 | 12.0 | 0.00 | 0.00 | 0.00 | 30 | 1008.9 |
| 20260505184740 | 83 | 293 | 3.0 | 12.0 | 0.00 | 0.00 | 0.00 | 27 | 1008.9 |
| 20260505184634 | 83 | 219 | 3.0 | 12.0 | 0.00 | 0.00 | 0.00 | 27 | 1008.9 |
| 20260505184526 | 83 | 105 | 3.0 | 12.0 | 0.00 | 0.00 | 0.00 | 29 | 1009.1 |
| 20260505184419 | 83 | 46 | 3.0 | 12.0 | 0.00 | 0.00 | 0.00 | 31 | 1008.9 |
| 20260505184055 | 84 | 283 | 3.0 | 12.0 | 0.00 | 0.00 | 0.00 | 31 | 1009.0 |
| 20260505183951 | 84 | 157 | 3.0 | 12.0 | 0.00 | 0.00 | 0.00 | 29 | 1009.1 |
| 20260505183845 | 84 | 262 | 3.0 | 12.0 | 0.00 | 0.00 | 0.00 | 31 | 1009.1 |
| 20260505183739 | 84 | 88 | 3.0 | 12.0 | 0.00 | 0.00 | 0.00 | 29 | 1009.1 |
| 20260505183633 | 84 | 259 | 2.0 | 12.0 | 0.00 | 0.00 | 0.00 | 31 | 1009.1 |
| 20260505183308 | 84 | 180 | 2.0 | 12.0 | 0.00 | 0.00 | 0.00 | 29 | 1009.2 |
| 20260505183206 | 84 | 185 | 1.0 | 9.0 | 0.00 | 0.00 | 0.00 | 31 | 1009.2 |
| 20260505183059 | 84 | 80 | 1.0 | 7.0 | 0.00 | 0.00 | 0.00 | 30 | 1009.4 |
| 20260505182953 | 84 | 112 | 1.0 | 7.0 | 0.00 | 0.00 | 0.00 | 32 | 1009.3 |
| 20260505182847 | 84 | 197 | 1.0 | 7.0 | 0.00 | 0.00 | 0.00 | 33 | 1009.4 |
| 20260505182740 | 84 | 91 | 1.0 | 7.0 | 0.00 | 0.00 | 0.00 | 31 | 1009.4 |
| 20260505182638 | 84 | 259 | 1.0 | 7.0 | 0.00 | 0.00 | 0.00 | 31 | 1009.4 |
| 20260505182531 | 84 | 264 | 1.0 | 7.0 | 0.00 | 0.00 | 0.00 | 32 | 1009.3 |
| 20260505182425 | 84 | 182 | 2.0 | 7.0 | 0.00 | 0.00 | 0.00 | 30 | 1009.3 |
| 20260505181840 | 83 | 115 | 2.0 | 7.0 | 0.00 | 0.00 | 0.00 | 31 | 1009.4 |
| 20260505181735 | 83 | 213 | 2.0 | 7.0 | 0.00 | 0.00 | 0.00 | 30 | 1009.4 |
| 20260505181629 | 83 | 275 | 2.0 | 8.0 | 0.00 | 0.00 | 0.00 | 30 | 1009.4 |
| 20260505181524 | 83 | 92 | 2.0 | 8.0 | 0.00 | 0.00 | 0.00 | 30 | 1009.4 |
| 20260505181418 | 84 | 53 | 2.0 | 8.0 | 0.00 | 0.00 | 0.00 | 31 | 1009.4 |
| 20260505181314 | 83 | 109 | 2.0 | 8.0 | 0.00 | 0.00 | 0.00 | 33 | 1009.4 |
| 20260505181209 | 83 | 104 | 2.0 | 8.0 | 0.00 | 0.00 | 0.00 | 31 | 1009.5 |
| 20260505181104 | 83 | 335 | 2.0 | 8.0 | 0.00 | 0.00 | 0.00 | 32 | 1009.5 |
| 20260505180959 | 83 | 176 | 2.0 | 8.0 | 0.00 | 0.00 | 0.00 | 29 | 1009.5 |
| 20260505180638 | 84 | 135 | 2.0 | 8.0 | 0.00 | 0.00 | 0.00 | 31 | 1009.5 |
| 20260505180531 | 84 | 182 | 2.0 | 8.0 | 0.00 | 0.00 | 0.00 | 32 | 1009.6 |
| 20260505180429 | 84 | 123 | 2.0 | 8.0 | 0.00 | 0.00 | 0.00 | 30 | 1009.6 |
| 20260505180322 | 84 | 274 | 2.0 | 8.0 | 0.00 | 0.00 | 0.00 | 30 | 1009.6 |
| 20260505175735 | 85 | 244 | 2.0 | 8.0 | 0.00 | 0.00 | 0.00 | 32 | 1009.5 |
| 20260505175632 | 85 | 264 | 1.0 | 7.0 | 0.00 | 0.00 | 0.00 | 33 | 1009.6 |
| 20260505175525 | 85 | 5 | 2.0 | 7.0 | 0.00 | 0.00 | 0.00 | 32 | 1009.6 |
| 20260505175158 | 86 | 205 | 2.0 | 7.0 | 0.00 | 0.00 | 0.00 | 33 | 1009.7 |
| 20260505175053 | 86 | 125 | 2.0 | 7.0 | 0.00 | 0.00 | 0.00 | 31 | 1009.7 |
| 20260505174948 | 86 | 95 | 2.0 | 7.0 | 0.00 | 0.00 | 0.00 | 31 | 1009.6 |
| 20260505174841 | 86 | 180 | 2.0 | 7.0 | 0.00 | 0.00 | 0.00 | 32 | 1009.7 |
| 20260505174736 | 86 | 157 | 2.0 | 7.0 | 0.00 | 0.00 | 0.00 | 31 | 1009.6 |
| 20260505174634 | 86 | 248 | 2.0 | 7.0 | 0.00 | 0.00 | 0.00 | 33 | 1009.6 |
| 20260505174530 | 86 | 276 | 2.0 | 7.0 | 0.00 | 0.00 | 0.00 | 33 | 1009.7 |
| 20260505174424 | 86 | 40 | 2.0 | 7.0 | 0.00 | 0.00 | 0.00 | 32 | 1009.7 |
| 20260505174322 | 86 | 221 | 1.0 | 6.0 | 0.00 | 0.00 | 0.00 | 32 | 1009.8 |
| 20260505174219 | 86 | 79 | 1.0 | 6.0 | 0.00 | 0.00 | 0.00 | 33 | 1009.6 |
| 20260505173854 | 86 | 193 | 1.0 | 11.0 | 0.00 | 0.00 | 0.00 | 32 | 1009.8 |
| 20260505173750 | 86 | 311 | 1.0 | 11.0 | 0.00 | 0.00 | 0.00 | 34 | 1009.8 |
| 20260505173647 | 86 | 193 | 1.0 | 11.0 | 0.00 | 0.00 | 0.00 | 34 | 1009.7 |
| 20260505173541 | 86 | 71 | 1.0 | 11.0 | 0.00 | 0.00 | 0.00 | 33 | 1009.8 |
| 20260505173436 | 85 | 150 | 1.0 | 11.0 | 0.00 | 0.00 | 0.00 | 35 | 1009.7 |
| 20260505173333 | 85 | 346 | 2.0 | 11.0 | 0.00 | 0.00 | 0.00 | 31 | 1009.7 |
| 20260505173230 | 85 | 209 | 2.0 | 11.0 | 0.00 | 0.00 | 0.00 | 32 | 1009.7 |
| 20260505172648 | 86 | 117 | 2.0 | 11.0 | 0.00 | 0.00 | 0.00 | 33 | 1009.8 |
| 20260505172543 | 86 | 69 | 2.0 | 11.0 | 0.00 | 0.00 | 0.00 | 32 | 1009.7 |
| 20260505172436 | 86 | 148 | 2.0 | 11.0 | 0.00 | 0.00 | 0.00 | 33 | 1009.8 |
| 20260505172333 | 86 | 92 | 2.0 | 11.0 | 0.00 | 0.00 | 0.00 | 32 | 1009.9 |
| 20260505172229 | 86 | 284 | 2.0 | 11.0 | 0.00 | 0.00 | 0.00 | 33 | 1009.8 |
| 20260505172126 | 86 | 95 | 2.0 | 11.0 | 0.00 | 0.00 | 0.00 | 33 | 1009.9 |
| 20260505172018 | 86 | 226 | 2.0 | 8.0 | 0.00 | 0.00 | 0.00 | 33 | 1009.9 |
| 20260505171914 | 86 | 136 | 2.0 | 8.0 | 0.00 | 0.00 | 0.00 | 33 | 1009.8 |
| 20260505171808 | 86 | 142 | 2.0 | 8.0 | 0.00 | 0.00 | 0.00 | 31 | 1009.8 |
| 20260505171700 | 86 | 114 | 2.0 | 8.0 | 0.00 | 0.00 | 0.00 | 33 | 1009.9 |
| 20260505171556 | 86 | 171 | 2.0 | 8.0 | 0.00 | 0.00 | 0.00 | 33 | 1009.8 |
| 20260505171453 | 86 | 172 | 2.0 | 8.0 | 0.00 | 0.00 | 0.00 | 33 | 1009.8 |
| 20260505171348 | 86 | 193 | 2.0 | 14.0 | 0.00 | 0.00 | 0.00 | 34 | 1009.8 |
| 20260505171024 | 86 | 311 | 1.0 | 14.0 | 0.00 | 0.00 | 0.00 | 32 | 1009.9 |
| 20260505170917 | 86 | 163 | 1.0 | 14.0 | 0.00 | 0.00 | 0.00 | 33 | 1009.8 |
| 20260505170814 | 85 | 122 | 1.0 | 14.0 | 0.00 | 0.00 | 0.00 | 34 | 1009.9 |
| 20260505170712 | 85 | 117 | 2.0 | 14.0 | 0.00 | 0.00 | 0.00 | 33 | 1009.9 |
| 20260505170608 | 85 | 274 | 2.0 | 14.0 | 0.00 | 0.00 | 0.00 | 33 | 1009.9 |
| 20260505170505 | 85 | 277 | 1.0 | 14.0 | 0.00 | 0.00 | 0.00 | 34 | 1009.9 |
| 20260505170400 | 85 | 172 | 2.0 | 14.0 | 0.00 | 0.00 | 0.00 | 33 | 1010.1 |
| 20260505165819 | 86 | 188 | 2.0 | 14.0 | 0.00 | 0.00 | 0.00 | 34 | 1010.1 |
| 20260505165716 | 86 | 335 | 1.0 | 14.0 | 0.00 | 0.00 | 0.00 | 32 | 1010.2 |
| 20260505165613 | 86 | 227 | 1.0 | 14.0 | 0.00 | 0.00 | 0.00 | 33 | 1010.1 |
| 20260505165507 | 86 | 165 | 1.0 | 14.0 | 0.00 | 0.00 | 0.00 | 32 | 1010.1 |
| 20260505165405 | 86 | 167 | 1.0 | 8.0 | 0.00 | 0.00 | 0.00 | 32 | 1010.1 |
| 20260505165305 | 86 | 257 | 1.0 | 8.0 | 0.00 | 0.00 | 0.00 | 33 | 1010.1 |
| 20260505165200 | 86 | 112 | 1.0 | 8.0 | 0.00 | 0.00 | 0.00 | 35 | 1010.1 |
| 20260505165053 | 86 | 119 | 1.0 | 8.0 | 0.00 | 0.00 | 0.00 | 36 | 1010.1 |
| 20260505164951 | 85 | 45 | 1.0 | 8.0 | 0.00 | 0.00 | 0.00 | 34 | 1010.1 |
| 20260505164848 | 85 | 327 | 1.0 | 8.0 | 0.00 | 0.00 | 0.00 | 32 | 1010.2 |
| 20260505164744 | 85 | 17 | 2.0 | 8.0 | 0.00 | 0.00 | 0.00 | 35 | 1010.2 |
| 20260505164639 | 85 | 236 | 2.0 | 8.0 | 0.00 | 0.00 | 0.00 | 37 | 1010.3 |
| 20260505164534 | 85 | 169 | 1.0 | 8.0 | 0.00 | 0.00 | 0.00 | 36 | 1010.3 |
| 20260505164429 | 85 | 115 | 1.0 | 5.0 | 0.00 | 0.00 | 0.00 | 34 | 1010.4 |
| 20260505164325 | 85 | 99 | 1.0 | 5.0 | 0.00 | 0.00 | 0.00 | 37 | 1010.3 |
| 20260505164223 | 85 | 165 | 1.0 | 5.0 | 0.00 | 0.00 | 0.00 | 35 | 1010.3 |
| 20260505163856 | 84 | 202 | 1.0 | 8.0 | 0.00 | 0.00 | 0.00 | 35 | 1010.4 |
| 20260505163534 | 84 | 38 | 1.0 | 8.0 | 0.00 | 0.00 | 0.00 | 35 | 1010.4 |
| 20260505163206 | 84 | 297 | 2.0 | 8.0 | 0.00 | 0.00 | 0.00 | 34 | 1010.4 |
| 20260505163100 | 84 | 150 | 2.0 | 8.0 | 0.00 | 0.00 | 0.00 | 35 | 1010.4 |
| 20260505162955 | 84 | 101 | 1.0 | 8.0 | 0.00 | 0.00 | 0.00 | 35 | 1010.4 |
| 20260505162148 | 84 | 211 | 1.0 | 9.0 | 0.00 | 0.00 | 0.00 | 36 | 1010.6 |
| 20260505162041 | 84 | 155 | 1.0 | 9.0 | 0.00 | 0.00 | 0.00 | 35 | 1010.6 |
| 20260505161934 | 84 | 220 | 1.0 | 9.0 | 0.00 | 0.00 | 0.00 | 36 | 1010.6 |
| 20260505161830 | 84 | 190 | 1.0 | 9.0 | 0.00 | 0.00 | 0.00 | 36 | 1010.7 |
| 20260505161726 | 84 | 22 | 1.0 | 9.0 | 0.00 | 0.00 | 0.00 | 35 | 1010.8 |
| 20260505161619 | 84 | 230 | 1.0 | 9.0 | 0.00 | 0.00 | 0.00 | 34 | 1010.8 |
| 20260505161255 | 84 | 277 | 1.0 | 9.0 | 0.00 | 0.00 | 0.00 | 34 | 1010.8 |
| 20260505160930 | 84 | 344 | 1.0 | 9.0 | 0.00 | 0.00 | 0.00 | 34 | 1010.9 |
| 20260505160824 | 84 | 219 | 1.0 | 9.0 | 0.00 | 0.00 | 0.00 | 34 | 1011.0 |
| 20260505160505 | 84 | 227 | 1.0 | 9.0 | 0.00 | 0.00 | 0.00 | 36 | 1011.0 |
| 20260505160359 | 84 | 355 | 1.0 | 9.0 | 0.00 | 0.00 | 0.00 | 36 | 1011.0 |
| 20260505160254 | 84 | 75 | 1.0 | 9.0 | 0.00 | 0.00 | 0.00 | 35 | 1011.0 |
| 20260505160152 | 84 | 120 | 1.0 | 9.0 | 0.00 | 0.00 | 0.00 | 34 | 1011.1 |
| 20260505153356 | 83 | 202 | 1.0 | 7.0 | 0.00 | 0.00 | 0.00 | 37 | 1011.3 |
| 20260505153252 | 82 | 126 | 1.0 | 7.0 | 0.00 | 0.00 | 0.00 | 38 | 1011.3 |
| 20260505153150 | 82 | 153 | 1.0 | 7.0 | 0.00 | 0.00 | 0.00 | 39 | 1011.3 |
| 20260505153044 | 82 | 140 | 1.0 | 7.0 | 0.00 | 0.00 | 0.00 | 37 | 1011.3 |
| 20260505152941 | 82 | 130 | 1.0 | 7.0 | 0.00 | 0.00 | 0.00 | 36 | 1011.3 |
| 20260505152837 | 82 | 321 | 0.0 | 7.0 | 0.00 | 0.00 | 0.00 | 36 | 1011.3 |
| 20260505152514 | 82 | 43 | 1.0 | 7.0 | 0.00 | 0.00 | 0.00 | 37 | 1011.3 |
| 20260505152411 | 82 | 229 | 1.0 | 7.0 | 0.00 | 0.00 | 0.00 | 38 | 1011.3 |
| 20260505152307 | 82 | 46 | 1.0 | 7.0 | 0.00 | 0.00 | 0.00 | 38 | 1011.3 |
| 20260505152202 | 81 | 155 | 1.0 | 7.0 | 0.00 | 0.00 | 0.00 | 37 | 1011.2 |
| 20260505152055 | 81 | 212 | 1.0 | 7.0 | 0.00 | 0.00 | 0.00 | 37 | 1011.3 |
| 20260505151951 | 81 | 221 | 1.0 | 7.0 | 0.00 | 0.00 | 0.00 | 37 | 1011.2 |
| 20260505151848 | 81 | 145 | 1.0 | 7.0 | 0.00 | 0.00 | 0.00 | 37 | 1011.2 |
| 20260505151742 | 81 | 282 | 1.0 | 7.0 | 0.00 | 0.00 | 0.00 | 38 | 1011.2 |
| 20260505151421 | 81 | 161 | 1.0 | 6.0 | 0.00 | 0.00 | 0.00 | 39 | 1011.2 |
| 20260505151318 | 81 | 205 | 1.0 | 6.0 | 0.00 | 0.00 | 0.00 | 40 | 1011.1 |
| 20260505151211 | 81 | 229 | 1.0 | 6.0 | 0.00 | 0.00 | 0.00 | 40 | 1011.2 |
| 20260505150847 | 81 | 173 | 0.0 | 6.0 | 0.00 | 0.00 | 0.00 | 39 | 1011.2 |
| 20260505150740 | 81 | 205 | 0.0 | 6.0 | 0.00 | 0.00 | 0.00 | 38 | 1011.3 |
| 20260505150415 | 80 | 244 | 1.0 | 6.0 | 0.00 | 0.00 | 0.00 | 39 | 1011.2 |
| 20260505150307 | 80 | 235 | 1.0 | 6.0 | 0.00 | 0.00 | 0.00 | 38 | 1011.2 |
| 20260505150202 | 80 | 88 | 1.0 | 6.0 | 0.00 | 0.00 | 0.00 | 40 | 1011.3 |
| 20260505140556 | 73 | 215 | 0.0 | 6.0 | 0.00 | 0.00 | 0.00 | 48 | 1011.4 |
| 20260505140453 | 73 | 141 | 0.0 | 6.0 | 0.00 | 0.00 | 0.00 | 48 | 1011.5 |
| 20260505140346 | 73 | 117 | 0.0 | 6.0 | 0.00 | 0.00 | 0.00 | 48 | 1011.6 |
| 20260505140242 | 73 | 169 | 0.0 | 6.0 | 0.00 | 0.00 | 0.00 | 49 | 1011.6 |
| 20260505140136 | 73 | 39 | 0.0 | 6.0 | 0.00 | 0.00 | 0.00 | 50 | 1011.5 |
| 20260505130300 | 63 | 51 | 0.0 | 2.0 | 0.00 | 0.00 | 0.00 | 62 | 1011.8 |
| 20260505130153 | 63 | 223 | 0.0 | 2.0 | 0.00 | 0.00 | 0.00 | 63 | 1011.8 |
| 20260505124953 | 62 | 133 | 0.0 | 2.0 | 0.00 | 0.00 | 0.00 | 67 | 1011.8 |
| 20260505124850 | 62 | 133 | 0.0 | 2.0 | 0.00 | 0.00 | 0.00 | 68 | 1011.8 |
| 20260505124747 | 62 | 148 | 0.0 | 2.0 | 0.00 | 0.00 | 0.00 | 68 | 1011.8 |
| 20260505124423 | 61 | 95 | 0.0 | 1.0 | 0.00 | 0.00 | 0.00 | 68 | 1011.8 |
| 20260505124316 | 61 | 100 | 0.0 | 1.0 | 0.00 | 0.00 | 0.00 | 68 | 1011.8 |
| 20260505124208 | 61 | 100 | 0.0 | 3.0 | 0.00 | 0.00 | 0.00 | 68 | 1011.8 |
| 20260505124103 | 61 | 84 | 0.0 | 3.0 | 0.00 | 0.00 | 0.00 | 67 | 1011.8 |
| 20260505123956 | 61 | 0 | 0.0 | 3.0 | 0.00 | 0.00 | 0.00 | 68 | 1011.8 |
| 20260505123850 | 61 | 115 | 0.0 | 3.0 | 0.00 | 0.00 | 0.00 | 67 | 1011.8 |
| 20260505123748 | 61 | 228 | 0.0 | 3.0 | 0.00 | 0.00 | 0.00 | 67 | 1011.8 |
| 20260505123643 | 61 | 263 | 0.0 | 3.0 | 0.00 | 0.00 | 0.00 | 68 | 1011.8 |
| 20260505123100 | 60 | 213 | 0.0 | 4.0 | 0.00 | 0.00 | 0.00 | 68 | 1011.7 |
| 20260505122956 | 60 | 198 | 0.0 | 4.0 | 0.00 | 0.00 | 0.00 | 69 | 1011.7 |
| 20260505122411 | 60 | 263 | 0.0 | 4.0 | 0.00 | 0.00 | 0.00 | 71 | 1011.7 |
| 20260505122307 | 60 | 326 | 0.0 | 4.0 | 0.00 | 0.00 | 0.00 | 71 | 1011.7 |
| 20260505122203 | 59 | 294 | 0.0 | 4.0 | 0.00 | 0.00 | 0.00 | 71 | 1011.7 |
| 20260505122058 | 59 | 5 | 0.0 | 4.0 | 0.00 | 0.00 | 0.00 | 71 | 1011.7 |
| 20260505121954 | 59 | 44 | 0.0 | 4.0 | 0.00 | 0.00 | 0.00 | 71 | 1011.7 |
| 20260505121850 | 59 | 148 | 0.0 | 4.0 | 0.00 | 0.00 | 0.00 | 71 | 1011.7 |
| 20260505121743 | 59 | 190 | 0.0 | 4.0 | 0.00 | 0.00 | 0.00 | 70 | 1011.7 |
| 20260505121417 | 59 | 226 | 0.0 | 4.0 | 0.00 | 0.00 | 0.00 | 69 | 1011.7 |
| 20260505121312 | 59 | 238 | 0.0 | 4.0 | 0.00 | 0.00 | 0.00 | 70 | 1011.7 |
| 20260505121208 | 59 | 138 | 0.0 | 0.0 | 0.00 | 0.00 | 0.00 | 71 | 1011.7 |
| 20260505121105 | 59 | 138 | 0.0 | 0.0 | 0.00 | 0.00 | 0.00 | 71 | 1011.7 |
| 20260505121003 | 59 | 138 | 0.0 | 4.0 | 0.00 | 0.00 | 0.00 | 71 | 1011.7 |
| 20260505120900 | 59 | 138 | 0.0 | 4.0 | 0.00 | 0.00 | 0.00 | 70 | 1011.7 |
| 20260505120537 | 59 | 122 | 0.0 | 4.0 | 0.00 | 0.00 | 0.00 | 72 | 1011.7 |
| 20260505120433 | 59 | 205 | 0.0 | 4.0 | 0.00 | 0.00 | 0.00 | 72 | 1011.7 |
| 20260505120327 | 59 | 231 | 0.0 | 4.0 | 0.00 | 0.00 | 0.00 | 72 | 1011.7 |
| 20260505120223 | 58 | 129 | 0.0 | 4.0 | 0.00 | 0.00 | 0.00 | 72 | 1011.7 |
| 20260505120117 | 58 | 259 | 0.0 | 4.0 | 0.00 | 0.00 | 0.00 | 72 | 1011.7 |
| 20260505120014 | 58 | 227 | 0.0 | 3.0 | 0.00 | 0.00 | 0.00 | 72 | 1011.7 |
| 20260505115912 | 58 | 164 | 0.0 | 1.0 | 0.00 | 0.00 | 0.00 | 73 | 1011.7 |
| 20260505115806 | 58 | 109 | 0.0 | 1.0 | 0.00 | 0.00 | 0.00 | 73 | 1011.7 |
| 20260505115703 | 58 | 190 | 0.0 | 0.0 | 0.00 | 0.00 | 0.00 | 72 | 1011.7 |
| 20260505115556 | 58 | 190 | 0.0 | 3.0 | 0.00 | 0.00 | 0.00 | 72 | 1011.7 |
| 20260505115451 | 58 | 184 | 0.0 | 3.0 | 0.00 | 0.00 | 0.00 | 72 | 1011.6 |
| 20260505115345 | 58 | 184 | 0.0 | 3.0 | 0.00 | 0.00 | 0.00 | 72 | 1011.6 |
| 20260505115241 | 58 | 188 | 0.0 | 3.0 | 0.00 | 0.00 | 0.00 | 72 | 1011.6 |
| 20260505115133 | 58 | 231 | 0.0 | 3.0 | 0.00 | 0.00 | 0.00 | 72 | 1011.7 |
| 20260505115026 | 58 | 194 | 0.0 | 3.0 | 0.00 | 0.00 | 0.00 | 73 | 1011.7 |
| 20260505114920 | 58 | 228 | 0.0 | 3.0 | 0.00 | 0.00 | 0.00 | 73 | 1011.7 |
| 20260505114817 | 58 | 229 | 0.0 | 3.0 | 0.00 | 0.00 | 0.00 | 73 | 1011.6 |
| 20260505114709 | 58 | 216 | 0.0 | 3.0 | 0.00 | 0.00 | 0.00 | 73 | 1011.7 |
| 20260505114606 | 58 | 82 | 0.0 | 3.0 | 0.00 | 0.00 | 0.00 | 73 | 1011.7 |
| 20260505114501 | 58 | 234 | 0.0 | 3.0 | 0.00 | 0.00 | 0.00 | 73 | 1011.6 |
| 20260505114359 | 58 | 234 | 0.0 | 3.0 | 0.00 | 0.00 | 0.00 | 73 | 1011.6 |
| 20260505114254 | 58 | 236 | 0.0 | 3.0 | 0.00 | 0.00 | 0.00 | 73 | 1011.6 |
| 20260505114151 | 58 | 207 | 0.0 | 3.0 | 0.00 | 0.00 | 0.00 | 73 | 1011.5 |
| 20260505114048 | 58 | 268 | 0.0 | 3.0 | 0.00 | 0.00 | 0.00 | 72 | 1011.6 |
| 20260505113941 | 58 | 227 | 0.0 | 3.0 | 0.00 | 0.00 | 0.00 | 73 | 1011.6 |
| 20260505113834 | 58 | 249 | 0.0 | 3.0 | 0.00 | 0.00 | 0.00 | 73 | 1011.6 |
| 20260505113727 | 58 | 271 | 0.0 | 3.0 | 0.00 | 0.00 | 0.00 | 73 | 1011.5 |
| 20260505113622 | 58 | 224 | 0.0 | 3.0 | 0.00 | 0.00 | 0.00 | 73 | 1011.5 |
| 20260505113515 | 58 | 217 | 0.0 | 2.0 | 0.00 | 0.00 | 0.00 | 73 | 1011.5 |
| 20260505113412 | 58 | 257 | 0.0 | 2.0 | 0.00 | 0.00 | 0.00 | 73 | 1011.5 |
| 20260505113305 | 58 | 257 | 0.0 | 2.0 | 0.00 | 0.00 | 0.00 | 73 | 1011.5 |
| 20260505112935 | 57 | 263 | 0.0 | 2.0 | 0.00 | 0.00 | 0.00 | 73 | 1011.4 |
| 20260505112830 | 57 | 250 | 0.0 | 2.0 | 0.00 | 0.00 | 0.00 | 73 | 1011.4 |
| 20260505112728 | 57 | 302 | 0.0 | 6.0 | 0.00 | 0.00 | 0.00 | 73 | 1011.3 |
| 20260505112622 | 57 | 213 | 0.0 | 6.0 | 0.00 | 0.00 | 0.00 | 73 | 1011.3 |
| 20260505112519 | 57 | 220 | 0.0 | 6.0 | 0.00 | 0.00 | 0.00 | 73 | 1011.2 |
| 20260505112417 | 57 | 346 | 0.0 | 6.0 | 0.00 | 0.00 | 0.00 | 72 | 1011.2 |
| 20260505112311 | 57 | 187 | 0.0 | 6.0 | 0.00 | 0.00 | 0.00 | 73 | 1011.3 |
| 20260505112205 | 57 | 210 | 0.0 | 6.0 | 0.00 | 0.00 | 0.00 | 73 | 1011.3 |
| 20260505112102 | 57 | 285 | 0.0 | 6.0 | 0.00 | 0.00 | 0.00 | 73 | 1011.3 |
| 20260505111958 | 57 | 186 | 0.0 | 6.0 | 0.00 | 0.00 | 0.00 | 73 | 1011.3 |
| 20260505111630 | 57 | 84 | 0.0 | 6.0 | 0.00 | 0.00 | 0.00 | 73 | 1011.3 |
| 20260505111527 | 57 | 200 | 0.0 | 6.0 | 0.00 | 0.00 | 0.00 | 73 | 1011.2 |
| 20260505111422 | 57 | 196 | 0.0 | 6.0 | 0.00 | 0.00 | 0.00 | 72 | 1011.2 |
| 20260505111100 | 57 | 220 | 0.0 | 6.0 | 0.00 | 0.00 | 0.00 | 72 | 1011.2 |
| 20260505110952 | 57 | 275 | 0.0 | 6.0 | 0.00 | 0.00 | 0.00 | 73 | 1011.2 |
| 20260505110845 | 57 | 178 | 0.0 | 6.0 | 0.00 | 0.00 | 0.00 | 72 | 1011.2 |
| 20260505110737 | 57 | 92 | 0.0 | 2.0 | 0.00 | 0.00 | 0.00 | 74 | 1011.2 |
| 20260505110631 | 57 | 189 | 0.0 | 0.0 | 0.00 | 0.00 | 0.00 | 74 | 1011.1 |
| 20260505110529 | 57 | 189 | 0.0 | 3.0 | 0.00 | 0.00 | 0.00 | 74 | 1011.2 |
| 20260505110423 | 57 | 355 | 0.0 | 3.0 | 0.00 | 0.00 | 0.00 | 74 | 1011.2 |
| 20260505110317 | 57 | 249 | 0.0 | 3.0 | 0.00 | 0.00 | 0.00 | 74 | 1011.1 |
| 20260505110211 | 57 | 105 | 0.0 | 3.0 | 0.00 | 0.00 | 0.00 | 74 | 1011.1 |
| 20260505110106 | 57 | 133 | 0.0 | 0.0 | 0.00 | 0.00 | 0.00 | 74 | 1011.1 |
| 20260505101956 | 56 | 296 | 0.0 | 4.0 | 0.00 | 0.00 | 0.00 | 74 | 1010.8 |
| 20260505101851 | 56 | 193 | 0.0 | 4.0 | 0.00 | 0.00 | 0.00 | 74 | 1010.8 |
| 20260505101525 | 56 | 194 | 0.0 | 4.0 | 0.00 | 0.00 | 0.00 | 74 | 1010.7 |
| 20260505101419 | 56 | 186 | 0.0 | 4.0 | 0.00 | 0.00 | 0.00 | 74 | 1010.7 |
| 20260505101314 | 56 | 192 | 0.0 | 4.0 | 0.00 | 0.00 | 0.00 | 74 | 1010.7 |
| 20260505101210 | 56 | 192 | 0.0 | 4.0 | 0.00 | 0.00 | 0.00 | 74 | 1010.7 |
| 20260505101105 | 56 | 171 | 0.0 | 4.0 | 0.00 | 0.00 | 0.00 | 74 | 1010.6 |
| 20260505101001 | 56 | 171 | 0.0 | 4.0 | 0.00 | 0.00 | 0.00 | 74 | 1010.6 |
| 20260505100635 | 56 | 202 | 0.0 | 4.0 | 0.00 | 0.00 | 0.00 | 74 | 1010.6 |
| 20260505100531 | 56 | 216 | 0.0 | 4.0 | 0.00 | 0.00 | 0.00 | 74 | 1010.6 |
| 20260505100424 | 56 | 233 | 0.0 | 4.0 | 0.00 | 0.00 | 0.00 | 74 | 1010.6 |
| 20260505100318 | 56 | 155 | 0.0 | 4.0 | 0.00 | 0.00 | 0.00 | 74 | 1010.6 |
| 20260505095953 | 56 | 167 | 0.0 | 3.0 | 0.00 | 0.00 | 0.00 | 74 | 1010.6 |
| 20260505095848 | 56 | 169 | 0.0 | 3.0 | 0.00 | 0.00 | 0.00 | 74 | 1010.6 |
| 20260505095743 | 56 | 169 | 0.0 | 3.0 | 0.00 | 0.00 | 0.00 | 74 | 1010.6 |
| 20260505095637 | 56 | 169 | 0.0 | 3.0 | 0.00 | 0.00 | 0.00 | 74 | 1010.6 |
| 20260505095530 | 56 | 171 | 0.0 | 3.0 | 0.00 | 0.00 | 0.00 | 74 | 1010.6 |
| 20260505095422 | 56 | 135 | 0.0 | 3.0 | 0.00 | 0.00 | 0.00 | 74 | 1010.6 |
| 20260505095317 | 56 | 185 | 0.0 | 2.0 | 0.00 | 0.00 | 0.00 | 74 | 1010.7 |
| 20260505095214 | 56 | 189 | 0.0 | 2.0 | 0.00 | 0.00 | 0.00 | 74 | 1010.6 |
| 20260505095111 | 56 | 223 | 0.0 | 2.0 | 0.00 | 0.00 | 0.00 | 74 | 1010.7 |
| 20260505095008 | 56 | 223 | 0.0 | 2.0 | 0.00 | 0.00 | 0.00 | 74 | 1010.7 |
| 20260505094905 | 56 | 223 | 0.0 | 2.0 | 0.00 | 0.00 | 0.00 | 74 | 1010.7 |
| 20260505094802 | 56 | 223 | 0.0 | 2.0 | 0.00 | 0.00 | 0.00 | 74 | 1010.7 |
| 20260505094658 | 56 | 254 | 0.0 | 2.0 | 0.00 | 0.00 | 0.00 | 74 | 1010.7 |
| 20260505094552 | 56 | 258 | 0.0 | 2.0 | 0.00 | 0.00 | 0.00 | 74 | 1010.7 |
| 20260505094445 | 56 | 142 | 0.0 | 2.0 | 0.00 | 0.00 | 0.00 | 74 | 1010.7 |
| 20260505094337 | 56 | 142 | 0.0 | 2.0 | 0.00 | 0.00 | 0.00 | 74 | 1010.7 |
| 20260505094233 | 56 | 9 | 0.0 | 2.0 | 0.00 | 0.00 | 0.00 | 75 | 1010.7 |
| 20260505094126 | 56 | 240 | 0.0 | 0.0 | 0.00 | 0.00 | 0.00 | 75 | 1010.6 |
| 20260505094019 | 56 | 240 | 0.0 | 1.0 | 0.00 | 0.00 | 0.00 | 75 | 1010.7 |
| 20260505093916 | 56 | 240 | 0.0 | 1.0 | 0.00 | 0.00 | 0.00 | 75 | 1010.6 |
| 20260505093813 | 56 | 150 | 0.0 | 0.0 | 0.00 | 0.00 | 0.00 | 75 | 1010.6 |
| 20260505093710 | 56 | 150 | 0.0 | 2.0 | 0.00 | 0.00 | 0.00 | 74 | 1010.6 |
| 20260505093609 | 56 | 171 | 0.0 | 2.0 | 0.00 | 0.00 | 0.00 | 74 | 1010.6 |
| 20260505093502 | 57 | 96 | 0.0 | 2.0 | 0.00 | 0.00 | 0.00 | 74 | 1010.6 |
| 20260505093141 | 57 | 181 | 0.0 | 2.0 | 0.00 | 0.00 | 0.00 | 74 | 1010.5 |
| 20260505093038 | 57 | 205 | 0.0 | 3.0 | 0.00 | 0.00 | 0.00 | 74 | 1010.6 |
| 20260505092933 | 56 | 202 | 0.0 | 3.0 | 0.00 | 0.00 | 0.00 | 73 | 1010.5 |
| 20260505092825 | 57 | 215 | 0.0 | 3.0 | 0.00 | 0.00 | 0.00 | 74 | 1010.5 |
| 20260505092718 | 57 | 277 | 0.0 | 3.0 | 0.00 | 0.00 | 0.00 | 74 | 1010.5 |
| 20260505092612 | 57 | 242 | 0.0 | 3.0 | 0.00 | 0.00 | 0.00 | 74 | 1010.5 |
| 20260505092245 | 57 | 178 | 0.0 | 3.0 | 0.00 | 0.00 | 0.00 | 74 | 1010.5 |
| 20260505091926 | 57 | 194 | 0.0 | 3.0 | 0.00 | 0.00 | 0.00 | 74 | 1010.5 |
| 20260505091824 | 57 | 91 | 0.0 | 3.0 | 0.00 | 0.00 | 0.00 | 74 | 1010.4 |
| 20260505091722 | 57 | 165 | 0.0 | 3.0 | 0.00 | 0.00 | 0.00 | 74 | 1010.5 |
| 20260505091616 | 57 | 157 | 0.0 | 3.0 | 0.00 | 0.00 | 0.00 | 74 | 1010.4 |
| 20260505091250 | 57 | 157 | 0.0 | 3.0 | 0.00 | 0.00 | 0.00 | 74 | 1010.4 |
| 20260505091146 | 57 | 149 | 0.0 | 3.0 | 0.00 | 0.00 | 0.00 | 74 | 1010.5 |
| 20260505091040 | 57 | 159 | 0.0 | 1.0 | 0.00 | 0.00 | 0.00 | 74 | 1010.5 |
| 20260505090717 | 57 | 273 | 0.0 | 1.0 | 0.00 | 0.00 | 0.00 | 74 | 1010.5 |
| 20260505090608 | 57 | 15 | 0.0 | 1.0 | 0.00 | 0.00 | 0.00 | 74 | 1010.5 |
| 20260505090243 | 57 | 186 | 0.0 | 1.0 | 0.00 | 0.00 | 0.00 | 74 | 1010.4 |
| 20260505090141 | 57 | 196 | 0.0 | 1.0 | 0.00 | 0.00 | 0.00 | 74 | 1010.4 |
| 20260505090034 | 57 | 159 | 0.0 | 1.0 | 0.00 | 0.00 | 0.00 | 74 | 1010.5 |
| 20260505085930 | 57 | 159 | 0.0 | 1.0 | 0.00 | 0.00 | 0.00 | 74 | 1010.4 |
| 20260505085827 | 57 | 159 | 0.0 | 1.0 | 0.00 | 0.00 | 0.00 | 74 | 1010.4 |
| 20260505085720 | 57 | 121 | 0.0 | 1.0 | 0.00 | 0.00 | 0.00 | 74 | 1010.4 |
| 20260505085617 | 57 | 184 | 0.0 | 1.0 | 0.00 | 0.00 | 0.00 | 74 | 1010.4 |
| 20260505085509 | 57 | 219 | 0.0 | 1.0 | 0.00 | 0.00 | 0.00 | 74 | 1010.4 |
| 20260505085402 | 57 | 200 | 0.0 | 1.0 | 0.00 | 0.00 | 0.00 | 74 | 1010.4 |
| 20260505085258 | 57 | 207 | 0.0 | 1.0 | 0.00 | 0.00 | 0.00 | 74 | 1010.4 |
| 20260505085153 | 57 | 201 | 0.0 | 1.0 | 0.00 | 0.00 | 0.00 | 74 | 1010.4 |
| 20260505085051 | 57 | 196 | 0.0 | 1.0 | 0.00 | 0.00 | 0.00 | 74 | 1010.4 |
| 20260505084949 | 57 | 196 | 0.0 | 1.0 | 0.00 | 0.00 | 0.00 | 75 | 1010.4 |
| 20260505084846 | 57 | 138 | 0.0 | 1.0 | 0.00 | 0.00 | 0.00 | 75 | 1010.4 |
| 20260505084527 | 57 | 169 | 0.0 | 2.0 | 0.00 | 0.00 | 0.00 | 75 | 1010.4 |
| 20260505084423 | 57 | 141 | 0.0 | 2.0 | 0.00 | 0.00 | 0.00 | 75 | 1010.4 |
| 20260505084319 | 57 | 141 | 0.0 | 2.0 | 0.00 | 0.00 | 0.00 | 75 | 1010.4 |
| 20260505084214 | 57 | 183 | 0.0 | 2.0 | 0.00 | 0.00 | 0.00 | 75 | 1010.4 |
| 20260505084112 | 57 | 191 | 0.0 | 2.0 | 0.00 | 0.00 | 0.00 | 75 | 1010.4 |
| 20260505084005 | 57 | 191 | 0.0 | 2.0 | 0.00 | 0.00 | 0.00 | 75 | 1010.4 |
| 20260505083902 | 57 | 208 | 0.0 | 2.0 | 0.00 | 0.00 | 0.00 | 75 | 1010.3 |
| 20260505083539 | 57 | 186 | 0.0 | 5.0 | 0.00 | 0.00 | 0.00 | 74 | 1010.3 |
| 20260505083435 | 57 | 205 | 0.0 | 5.0 | 0.00 | 0.00 | 0.00 | 74 | 1010.3 |
| 20260505083328 | 57 | 155 | 0.0 | 5.0 | 0.00 | 0.00 | 0.00 | 74 | 1010.3 |
| 20260505083000 | 57 | 229 | 0.0 | 5.0 | 0.00 | 0.00 | 0.00 | 74 | 1010.4 |
| 20260505082854 | 57 | 247 | 0.0 | 5.0 | 0.00 | 0.00 | 0.00 | 74 | 1010.3 |
| 20260505082748 | 57 | 312 | 0.0 | 5.0 | 0.00 | 0.00 | 0.00 | 74 | 1010.4 |
| 20260505082642 | 57 | 252 | 0.0 | 7.0 | 0.00 | 0.00 | 0.00 | 75 | 1010.3 |
| 20260505082315 | 57 | 205 | 0.0 | 7.0 | 0.00 | 0.00 | 0.00 | 75 | 1010.3 |
| 20260505082209 | 57 | 205 | 0.0 | 7.0 | 0.00 | 0.00 | 0.00 | 76 | 1010.3 |
| 20260505082104 | 57 | 205 | 0.0 | 7.0 | 0.00 | 0.00 | 0.00 | 76 | 1010.3 |
| 20260505081957 | 57 | 205 | 0.0 | 7.0 | 0.00 | 0.00 | 0.00 | 76 | 1010.3 |
| 20260505081854 | 57 | 205 | 0.0 | 7.0 | 0.00 | 0.00 | 0.00 | 76 | 1010.3 |
| 20260505081747 | 57 | 113 | 0.0 | 7.0 | 0.00 | 0.00 | 0.00 | 76 | 1010.3 |
| 20260505081642 | 57 | 126 | 0.0 | 7.0 | 0.00 | 0.00 | 0.00 | 76 | 1010.3 |
| 20260505081538 | 56 | 183 | 0.0 | 7.0 | 0.00 | 0.00 | 0.00 | 75 | 1010.3 |
| 20260505081433 | 56 | 160 | 0.0 | 7.0 | 0.00 | 0.00 | 0.00 | 75 | 1010.3 |
| 20260505081107 | 56 | 181 | 0.0 | 7.0 | 0.00 | 0.00 | 0.00 | 75 | 1010.2 |
| 20260505080520 | 56 | 163 | 0.0 | 5.0 | 0.00 | 0.00 | 0.00 | 76 | 1010.1 |
| 20260505080417 | 56 | 198 | 0.0 | 5.0 | 0.00 | 0.00 | 0.00 | 76 | 1010.2 |
| 20260505080313 | 56 | 171 | 0.0 | 5.0 | 0.00 | 0.00 | 0.00 | 76 | 1010.2 |
| 20260505080211 | 56 | 302 | 0.0 | 4.0 | 0.00 | 0.00 | 0.00 | 76 | 1010.1 |
| 20260505080108 | 56 | 215 | 0.0 | 4.0 | 0.00 | 0.00 | 0.00 | 76 | 1010.1 |
| 20260505080006 | 56 | 226 | 0.0 | 4.0 | 0.00 | 0.00 | 0.00 | 76 | 1010.1 |
| 20260505075859 | 56 | 211 | 0.0 | 4.0 | 0.00 | 0.00 | 0.00 | 77 | 1010.1 |
| 20260505075757 | 56 | 267 | 0.0 | 4.0 | 0.00 | 0.00 | 0.00 | 77 | 1010.1 |
| 20260505075653 | 56 | 267 | 0.0 | 4.0 | 0.00 | 0.00 | 0.00 | 77 | 1010.0 |
| 20260505075547 | 56 | 138 | 0.0 | 3.0 | 0.00 | 0.00 | 0.00 | 77 | 1010.1 |
| 20260505075440 | 56 | 107 | 0.0 | 3.0 | 0.00 | 0.00 | 0.00 | 77 | 1010.1 |
| 20260505074855 | 56 | 258 | 0.0 | 3.0 | 0.00 | 0.00 | 0.00 | 77 | 1010.1 |
| 20260505074752 | 56 | 228 | 0.0 | 0.0 | 0.00 | 0.00 | 0.00 | 77 | 1010.1 |
| 20260505074645 | 56 | 228 | 0.0 | 1.0 | 0.00 | 0.00 | 0.00 | 77 | 1010.1 |
| 20260505074542 | 56 | 228 | 0.0 | 1.0 | 0.00 | 0.00 | 0.00 | 77 | 1010.1 |
| 20260505074440 | 56 | 194 | 0.0 | 1.0 | 0.00 | 0.00 | 0.00 | 77 | 1010.1 |
| 20260505074332 | 56 | 162 | 0.0 | 1.0 | 0.00 | 0.00 | 0.00 | 78 | 1010.0 |
| 20260505074228 | 56 | 162 | 0.0 | 1.0 | 0.00 | 0.00 | 0.00 | 78 | 1010.0 |
| 20260505073646 | 56 | 118 | 0.0 | 3.0 | 0.00 | 0.00 | 0.00 | 78 | 1010.0 |
| 20260505073321 | 56 | 173 | 0.0 | 3.0 | 0.00 | 0.00 | 0.00 | 78 | 1010.0 |
| 20260505072957 | 56 | 180 | 0.0 | 3.0 | 0.00 | 0.00 | 0.00 | 79 | 1010.0 |
| 20260505072850 | 56 | 132 | 0.0 | 3.0 | 0.00 | 0.00 | 0.00 | 79 | 1010.0 |
| 20260505072745 | 56 | 132 | 0.0 | 3.0 | 0.00 | 0.00 | 0.00 | 79 | 1010.0 |
| 20260505072643 | 56 | 38 | 0.0 | 3.0 | 0.00 | 0.00 | 0.00 | 79 | 1010.0 |
| 20260505072537 | 56 | 168 | 0.0 | 3.0 | 0.00 | 0.00 | 0.00 | 79 | 1010.0 |
| 20260505072434 | 56 | 108 | 0.0 | 3.0 | 0.00 | 0.00 | 0.00 | 79 | 1010.0 |
| 20260505072329 | 56 | 112 | 0.0 | 3.0 | 0.00 | 0.00 | 0.00 | 78 | 1009.9 |
| 20260505072225 | 56 | 191 | 0.0 | 3.0 | 0.00 | 0.00 | 0.00 | 79 | 1010.0 |
| 20260505071900 | 56 | 81 | 0.0 | 2.0 | 0.00 | 0.00 | 0.00 | 78 | 1009.9 |
| 20260505071756 | 56 | 261 | 0.0 | 2.0 | 0.00 | 0.00 | 0.00 | 78 | 1009.9 |
| 20260505071648 | 56 | 288 | 0.0 | 2.0 | 0.00 | 0.00 | 0.00 | 78 | 1009.9 |
| 20260505071320 | 56 | 100 | 0.0 | 0.0 | 0.00 | 0.00 | 0.00 | 78 | 1009.9 |
| 20260505070953 | 56 | 100 | 0.0 | 0.0 | 0.00 | 0.00 | 0.00 | 78 | 1009.8 |
| 20260505070850 | 56 | 100 | 0.0 | 0.0 | 0.00 | 0.00 | 0.00 | 78 | 1009.9 |
| 20260505070748 | 56 | 229 | 0.0 | 0.0 | 0.00 | 0.00 | 0.00 | 78 | 1009.8 |
| 20260505070645 | 56 | 229 | 0.0 | 1.0 | 0.00 | 0.00 | 0.00 | 79 | 1009.8 |
| 20260505070054 | 56 | 154 | 0.0 | 3.0 | 0.00 | 0.00 | 0.00 | 79 | 1009.9 |
| 20260505065949 | 56 | 154 | 0.0 | 3.0 | 0.00 | 0.00 | 0.00 | 79 | 1009.8 |
| 20260505065841 | 56 | 198 | 0.0 | 0.0 | 0.00 | 0.00 | 0.00 | 79 | 1009.9 |
| 20260505065734 | 56 | 198 | 0.0 | 0.0 | 0.00 | 0.00 | 0.00 | 79 | 1009.9 |
| 20260505065626 | 56 | 198 | 0.0 | 0.0 | 0.00 | 0.00 | 0.00 | 79 | 1009.8 |
| 20260505065259 | 56 | 175 | 0.0 | 2.0 | 0.00 | 0.00 | 0.00 | 79 | 1009.9 |
| 20260505065153 | 56 | 175 | 0.0 | 2.0 | 0.00 | 0.00 | 0.00 | 78 | 1009.9 |
| 20260505065050 | 56 | 190 | 0.0 | 2.0 | 0.00 | 0.00 | 0.00 | 78 | 1009.9 |
| 20260505064945 | 56 | 190 | 0.0 | 2.0 | 0.00 | 0.00 | 0.00 | 78 | 1009.8 |
| 20260505064839 | 56 | 190 | 0.0 | 2.0 | 0.00 | 0.00 | 0.00 | 78 | 1009.8 |
| 20260505064733 | 56 | 190 | 0.0 | 1.0 | 0.00 | 0.00 | 0.00 | 78 | 1009.8 |
| 20260505064626 | 56 | 190 | 0.0 | 1.0 | 0.00 | 0.00 | 0.00 | 78 | 1009.9 |
| 20260505064524 | 56 | 190 | 0.0 | 1.0 | 0.00 | 0.00 | 0.00 | 78 | 1009.9 |
| 20260505064420 | 56 | 190 | 0.0 | 1.0 | 0.00 | 0.00 | 0.00 | 78 | 1009.9 |
| 20260505064315 | 56 | 188 | 0.0 | 1.0 | 0.00 | 0.00 | 0.00 | 78 | 1009.9 |
| 20260505064213 | 56 | 180 | 0.0 | 1.0 | 0.00 | 0.00 | 0.00 | 78 | 1009.8 |
| 20260505064110 | 56 | 181 | 0.0 | 1.0 | 0.00 | 0.00 | 0.00 | 78 | 1009.8 |
| 20260505064008 | 56 | 218 | 0.0 | 1.0 | 0.00 | 0.00 | 0.00 | 78 | 1009.8 |
| 20260505063639 | 56 | 238 | 0.0 | 0.0 | 0.00 | 0.00 | 0.00 | 78 | 1009.8 |
| 20260505063536 | 56 | 238 | 0.0 | 1.0 | 0.00 | 0.00 | 0.00 | 78 | 1009.8 |
| 20260505063432 | 56 | 232 | 0.0 | 1.0 | 0.00 | 0.00 | 0.00 | 78 | 1009.8 |
| 20260505063329 | 56 | 233 | 0.0 | 1.0 | 0.00 | 0.00 | 0.00 | 78 | 1009.8 |
| 20260505063224 | 56 | 233 | 0.0 | 1.0 | 0.00 | 0.00 | 0.00 | 78 | 1009.8 |
| 20260505063120 | 56 | 207 | 0.0 | 1.0 | 0.00 | 0.00 | 0.00 | 78 | 1009.8 |
| 20260505063013 | 56 | 196 | 0.0 | 1.0 | 0.00 | 0.00 | 0.00 | 78 | 1009.8 |
| 20260505062909 | 56 | 196 | 0.0 | 1.0 | 0.00 | 0.00 | 0.00 | 78 | 1009.9 |
| 20260505062804 | 56 | 194 | 0.0 | 0.0 | 0.00 | 0.00 | 0.00 | 78 | 1009.8 |
| 20260505062659 | 56 | 194 | 0.0 | 0.0 | 0.00 | 0.00 | 0.00 | 77 | 1009.8 |
| 20260505062555 | 56 | 194 | 0.0 | 0.0 | 0.00 | 0.00 | 0.00 | 77 | 1009.8 |
| 20260505062451 | 56 | 194 | 0.0 | 0.0 | 0.00 | 0.00 | 0.00 | 77 | 1009.8 |
| 20260505062348 | 56 | 194 | 0.0 | 0.0 | 0.00 | 0.00 | 0.00 | 77 | 1009.8 |
| 20260505062241 | 56 | 194 | 0.0 | 0.0 | 0.00 | 0.00 | 0.00 | 77 | 1009.7 |
| 20260505062135 | 56 | 194 | 0.0 | 0.0 | 0.00 | 0.00 | 0.00 | 77 | 1009.8 |
| 20260505062029 | 56 | 194 | 0.0 | 0.0 | 0.00 | 0.00 | 0.00 | 77 | 1009.8 |
| 20260505061923 | 56 | 194 | 0.0 | 0.0 | 0.00 | 0.00 | 0.00 | 77 | 1009.8 |
| 20260505061558 | 57 | 194 | 0.0 | 0.0 | 0.00 | 0.00 | 0.00 | 76 | 1009.8 |
| 20260505061455 | 57 | 194 | 0.0 | 0.0 | 0.00 | 0.00 | 0.00 | 76 | 1009.8 |
| 20260505061351 | 57 | 194 | 0.0 | 2.0 | 0.00 | 0.00 | 0.00 | 76 | 1009.8 |
| 20260505061246 | 57 | 194 | 0.0 | 2.0 | 0.00 | 0.00 | 0.00 | 76 | 1009.8 |
| 20260505061143 | 57 | 232 | 0.0 | 1.0 | 0.00 | 0.00 | 0.00 | 76 | 1009.8 |
| 20260505061041 | 57 | 232 | 0.0 | 1.0 | 0.00 | 0.00 | 0.00 | 76 | 1009.8 |
| 20260505060935 | 57 | 232 | 0.0 | 1.0 | 0.00 | 0.00 | 0.00 | 75 | 1009.8 |
| 20260505060831 | 57 | 232 | 0.0 | 1.0 | 0.00 | 0.00 | 0.00 | 76 | 1009.8 |
| 20260505060727 | 57 | 132 | 0.0 | 0.0 | 0.00 | 0.00 | 0.00 | 75 | 1009.9 |
| 20260505060620 | 57 | 51 | 0.0 | 0.0 | 0.00 | 0.00 | 0.00 | 75 | 1009.9 |
| 20260505060513 | 57 | 51 | 0.0 | 0.0 | 0.00 | 0.00 | 0.00 | 75 | 1009.9 |
| 20260505060405 | 57 | 51 | 0.0 | 0.0 | 0.00 | 0.00 | 0.00 | 75 | 1009.9 |
| 20260505060300 | 57 | 51 | 0.0 | 0.0 | 0.00 | 0.00 | 0.00 | 75 | 1009.9 |
| 20260505060154 | 57 | 51 | 0.0 | 0.0 | 0.00 | 0.00 | 0.00 | 75 | 1009.9 |
| 20260505060046 | 57 | 51 | 0.0 | 0.0 | 0.00 | 0.00 | 0.00 | 75 | 1009.9 |
| 20260505055943 | 57 | 51 | 0.0 | 0.0 | 0.00 | 0.00 | 0.00 | 75 | 1009.9 |
| 20260505055618 | 57 | 51 | 0.0 | 0.0 | 0.00 | 0.00 | 0.00 | 75 | 1009.9 |
| 20260505055514 | 57 | 51 | 0.0 | 0.0 | 0.00 | 0.00 | 0.00 | 75 | 1009.9 |
| 20260505055410 | 57 | 51 | 0.0 | 0.0 | 0.00 | 0.00 | 0.00 | 75 | 1009.8 |
| 20260505055304 | 57 | 51 | 0.0 | 0.0 | 0.00 | 0.00 | 0.00 | 75 | 1009.8 |
| 20260505055156 | 57 | 51 | 0.0 | 0.0 | 0.00 | 0.00 | 0.00 | 75 | 1009.9 |
| 20260505055047 | 57 | 51 | 0.0 | 0.0 | 0.00 | 0.00 | 0.00 | 75 | 1009.8 |
| 20260505054945 | 57 | 51 | 0.0 | 0.0 | 0.00 | 0.00 | 0.00 | 75 | 1009.9 |
| 20260505054843 | 57 | 51 | 0.0 | 0.0 | 0.00 | 0.00 | 0.00 | 75 | 1009.9 |
| 20260505054741 | 57 | 51 | 0.0 | 0.0 | 0.00 | 0.00 | 0.00 | 75 | 1009.8 |
| 20260505054636 | 57 | 51 | 0.0 | 0.0 | 0.00 | 0.00 | 0.00 | 75 | 1009.9 |